GFSNE_850_rhum_039.txt.gz
RH
82 90 90 86 89 100 100 100 100 95 86 79 77 84 71 76 86 82 69 75 95 95 98 95 93 94 97 89 58 50 54 52 46 33 68 90 96 96
92 99 96 99 99 100 100 100 100 100 98 98 91 93 91 95 94 95 98 100 100 100 99 100 100 100 92 80 76 62 53 45 60 85 97 97 96 98
67 76 87 98 100 92 96 100 100 100 100 99 98 99 100 98 100 100 100 99 100 100 97 100 99 83 55 45 45 70 70 68 88 95 97 97 98 97
73 70 69 66 96 100 98 100 98 99 100 100 100 99 100 100 100 100 100 99 100 100 100 93 77 41 60 56 45 42 66 97 96 99 100 100 100 100
95 99 77 79 99 100 99 98 98 100 100 99 100 99 100 99 100 100 100 100 100 87 48 37 47 47 35 27 42 74 96 96 97 96 98 99 99 100
100 100 100 99 100 100 99 100 99 100 99 100 99 99 100 100 99 100 98 67 40 44 42 35 46 30 28 27 30 48 50 49 48 63 86 93 92 96
91 98 98 99 100 99 100 100 100 99 100 100 100 100 100 99 89 60 54 46 36 51 42 33 27 23 31 39 44 48 50 51 56 85 95 97 99 100
98 97 99 98 98 98 100 100 100 100 100 99 98 97 63 52 54 61 53 55 37 43 24 16 32 37 43 48 50 51 52 55 60 87 96 99 96 100
97 98 99 98 100 98 97 98 97 94 92 63 48 52 61 60 58 54 58 58 46 37 40 31 40 41 47 47 50 52 54 56 59 62 69 93 100 100
99 98 99 98 98 99 95 57 42 38 38 32 39 44 50 63 75 68 54 46 32 30 50 42 46 47 47 48 50 50 56 59 60 62 62 62 66 94
95 77 52 30 22 18 20 24 32 48 58 69 70 64 56 55 52 38 30 31 44 49 58 61 58 55 45 42 47 52 56 58 60 59 60 62 63 65
22 20 20 20 22 25 22 28 43 51 58 60 53 39 33 29 29 36 53 60 68 66 70 69 66 70 57 46 50 54 54 57 57 62 63 63 60 61
17 19 24 25 25 26 27 35 46 49 37 33 25 26 29 39 56 64 68 69 71 74 75 85 73 79 100 74 53 51 53 57 60 59 57 58 62 67
27 32 35 33 31 28 28 29 30 29 27 27 30 42 54 60 63 68 72 74 75 75 76 85 88 87 97 95 82 56 56 59 62 56 56 58 66 72
31 34 36 33 31 29 29 31 30 32 35 44 60 66 67 65 66 69 73 76 76 75 74 80 83 83 94 93 88 66 70 59 60 63 62 66 68 68
30 30 31 32 31 32 32 36 41 51 62 68 68 69 70 72 74 77 74 74 72 68 72 75 79 85 85 86 94 72 66 89 63 66 75 69 71 70
27 29 29 31 30 32 37 46 60 70 70 71 71 73 74 76 76 78 81 82 85 81 75 76 80 90 89 90 95 74 71 71 68 71 79 75 68 68
30 31 30 31 32 36 44 57 70 72 72 72 73 74 74 75 77 80 85 90 90 86 84 84 84 90 89 79 80 76 76 82 74 78 84 96 82 75
34 34 33 32 34 37 45 55 66 71 72 73 74 74 75 76 80 84 88 92 92 92 88 88 91 98 100 98 79 85 84 80 81 75 76 82 85 80
35 34 32 34 34 36 42 48 54 61 66 67 68 70 72 72 78 89 92 95 94 91 87 87 92 95 100 95 98 76 69 78 78 77 77 82 86 80
35 34 34 34 33 34 37 41 45 48 51 54 57 61 64 69 84 93 95 97 100 98 96 91 89 95 97 98 96 74 62 65 79 93 88 99 97 93
34 33 33 34 35 35 35 38 40 43 46 49 53 60 74 92 96 96 97 97 96 96 94 90 89 92 94 95 92 90 76 70 71 78 86 99 100 100
31 30 30 32 34 33 35 38 40 42 47 59 78 93 98 97 96 97 97 98 97 96 94 94 93 90 88 97 100 100 100 87 87 100 99 86 89 89

GFSNE_850_rhum_042.txt.gz
RH
80 87 87 85 94 99 100 100 100 100 99 98 94 90 85 82 85 86 95 88 88 96 100 100 100 100 100 100 100 98 99 92 88 88 73 67 95 96
75 84 87 85 78 87 97 99 99 100 100 98 99 98 94 91 97 96 98 99 100 100 100 100 100 100 100 99 100 99 89 91 92 93 96 97 96 94
62 62 76 91 100 100 100 100 100 100 99 99 100 100 100 100 100 100 100 100 100 100 100 100 99 99 99 99 96 82 95 97 91 95 95 96 97 96
74 79 95 100 99 98 98 98 100 100 100 99 100 100 100 100 100 100 100 99 100 100 98 99 99 98 94 84 97 85 78 80 84 92 96 98 98 99
90 100 98 99 98 97 99 99 100 98 100 99 100 100 100 100 100 100 99 99 99 99 98 95 58 79 90 72 62 71 59 80 85 94 91 96 96 94
91 91 91 96 100 100 100 99 97 98 98 99 99 100 100 99 100 99 100 98 98 87 59 54 47 40 40 30 24 22 21 24 35 39 43 54 74 92
78 81 90 96 96 93 92 97 100 99 100 100 100 100 100 100 99 99 97 80 60 50 40 46 32 23 19 21 26 32 37 42 45 46 69 93 98 100
93 90 88 93 93 92 93 99 98 99 99 99 100 100 96 96 66 58 56 48 52 46 35 25 26 20 33 42 42 42 47 49 50 52 60 92 100 100
95 97 97 96 97 96 95 96 99 100 96 94 82 56 50 53 56 52 46 45 46 40 41 16 32 36 45 49 50 50 51 54 56 58 58 62 82 72
93 91 93 94 92 92 93 86 57 38 29 28 30 37 44 48 52 52 52 49 39 23 33 42 41 44 46 50 49 48 51 56 58 56 59 59 57 55
36 32 26 19 17 13 12 14 17 23 36 40 45 51 56 58 72 66 50 42 35 45 55 57 52 50 45 44 44 48 54 56 58 59 58 58 57 57
15 17 19 19 19 19 19 24 31 40 49 52 58 53 41 33 41 45 43 58 71 64 61 66 67 71 57 52 55 58 58 60 58 59 61 59 59 59
17 19 22 23 24 24 24 24 28 32 30 30 28 28 32 37 45 60 67 67 67 75 83 99 85 94 99 68 49 50 54 53 53 56 60 59 55 58
27 28 28 25 26 27 28 28 28 28 27 27 29 35 45 58 65 66 69 72 73 74 78 88 87 89 100 99 65 48 54 54 54 56 57 61 62 63
31 30 31 31 32 29 30 32 30 32 34 37 46 60 66 65 65 67 71 74 74 76 81 86 88 85 94 96 88 62 65 51 56 59 61 63 65 65
30 31 31 32 34 35 34 37 41 51 60 67 69 69 70 72 74 76 74 76 75 73 79 84 87 89 86 83 92 76 67 80 59 62 67 63 65 64
30 32 31 31 32 33 38 45 56 69 75 74 72 72 72 72 73 76 77 78 81 77 74 79 88 91 90 88 89 77 70 70 68 70 71 66 62 60
32 34 32 30 30 33 37 46 58 70 73 70 71 71 71 72 72 72 77 84 86 83 81 82 86 89 88 85 82 74 76 76 71 72 77 80 64 59
31 34 33 32 31 32 35 41 47 58 65 68 68 68 69 69 71 70 71 81 87 88 85 86 86 90 96 91 79 80 83 77 79 78 75 75 73 65
34 32 32 32 31 31 32 36 40 45 49 53 56 57 58 60 62 64 73 89 91 87 84 84 86 92 99 97 98 73 73 80 82 76 69 70 73 70
34 33 32 30 30 30 30 32 34 37 40 44 46 49 51 55 62 78 93 95 96 95 92 86 86 95 97 98 94 77 73 75 79 77 71 90 88 90
31 30 31 30 29 29 29 30 31 34 38 41 44 50 63 83 96 97 96 95 93 94 90 86 85 90 95 96 91 84 74 68 67 77 79 89 98 100
28 28 28 28 30 29 29 31 33 36 40 50 70 88 94 94 98 98 97 96 95 95 94 92 94 95 94 94 92 87 80 74 77 78 67 74 83 93

GFSNE_850_rhum_045.txt.gz
RH
72 86 93 99 100 88 98 100 100 100 98 99 95 88 89 92 98 92 99 98 100 98 97 100 100 100 100 100 99 99 100 99 100 99 99 98 97 98
56 60 67 70 94 98 99 98 100 100 100 98 96 99 99 100 100 98 100 100 100 100 100 100 99 100 100 100 100 98 99 100 99 99 99 98 98 98
59 61 62 69 97 100 97 98 96 95 100 98 100 98 98 99 100 100 99 100 100 100 100 99 99 99 99 98 99 100 99 98 98 99 97 98 96 97
61 61 64 92 100 98 98 98 98 98 100 100 99 100 98 100 100 99 99 99 100 99 99 99 99 98 100 99 100 99 100 98 88 83 96 96 96 98
72 77 82 86 91 92 96 99 99 98 99 99 100 98 99 100 99 100 99 99 99 99 100 100 98 100 96 96 99 87 69 84 57 78 72 62 73 94
80 79 79 78 81 91 94 98 98 100 100 100 99 99 99 99 99 99 99 100 99 98 97 93 80 56 43 47 47 37 33 28 27 32 32 36 36 49
75 78 82 89 94 92 95 100 99 99 100 100 100 99 99 100 99 99 98 98 94 76 58 48 36 28 30 23 18 17 22 30 34 40 45 80 99 100
87 90 94 99 98 100 98 98 98 98 98 98 98 97 98 95 84 73 64 61 48 36 28 24 24 21 18 17 23 31 36 41 45 47 49 60 94 100
92 94 96 96 96 95 92 91 95 96 93 92 82 65 50 52 59 61 58 47 41 41 42 19 18 21 33 37 40 42 47 49 51 53 53 54 74 86
68 82 80 73 64 54 42 41 38 30 27 27 28 32 36 41 46 47 52 54 46 33 29 27 38 41 45 49 49 49 49 51 54 56 57 56 58 57
16 17 17 17 16 14 15 17 18 23 31 34 43 47 46 47 54 40 33 39 28 34 54 59 51 48 46 45 44 44 48 51 56 60 60 59 56 54
12 14 17 18 21 20 16 19 19 22 26 31 37 39 41 40 35 39 39 40 60 62 62 66 63 64 57 50 53 58 59 59 57 56 56 57 58 57
14 17 20 24 22 22 22 21 24 23 25 25 24 24 25 29 33 38 50 62 66 70 75 82 72 71 81 70 49 55 59 56 56 56 57 56 56 58
19 22 25 28 27 26 25 27 29 28 28 27 27 30 33 44 56 63 66 68 70 69 74 82 84 82 89 83 62 50 52 52 53 53 54 56 59 62
22 23 25 26 25 24 27 28 26 29 30 35 42 52 64 66 66 68 71 72 72 73 76 81 84 88 92 94 82 61 58 49 52 53 54 59 61 63
22 25 27 28 29 29 30 30 32 38 47 59 66 67 67 68 71 76 72 74 72 72 82 88 90 95 92 89 91 79 65 71 56 60 64 65 62 62
24 27 31 29 29 28 29 32 40 50 61 68 68 65 66 68 69 73 72 73 74 73 72 79 88 92 93 94 90 80 75 72 68 64 68 70 64 62
26 27 32 30 28 27 28 31 38 47 57 64 66 65 65 65 65 66 69 69 69 71 77 83 87 88 83 78 80 76 76 77 73 75 75 76 68 62
28 29 29 29 28 28 28 28 31 39 44 49 53 56 58 58 58 58 60 62 65 76 84 87 88 93 95 91 78 81 85 80 81 78 77 78 74 60
29 30 29 29 28 27 28 28 28 31 35 39 42 44 47 48 50 52 55 65 84 89 85 85 88 96 98 98 98 82 81 79 83 80 72 71 68 64
26 27 28 26 25 26 26 27 28 28 30 33 36 39 42 45 48 59 80 95 98 96 94 90 90 96 97 99 96 78 75 78 79 79 74 82 76 70
22 23 24 25 25 25 26 27 26 28 31 34 37 41 49 69 86 96 98 98 96 97 94 88 86 88 91 92 87 85 76 72 71 72 75 84 93 100
20 21 22 23 24 25 26 27 29 32 36 44 59 78 94 98 99 99 99 98 95 94 93 88 88 93 93 93 90 85 80 78 78 73 66 69 72 78

GFSNE_850_rhum_048.txt.gz
RH
87 67 72 94 98 98 99 91 97 98 94 97 100 90 91 88 92 95 94 98 100 99 99 100 97 100 100 100 99 98 98 97 98 99 99 99 100 100
59 60 60 63 60 78 99 97 98 97 96 97 96 97 99 98 96 93 98 98 98 99 98 100 100 100 99 99 99 98 99 99 99 99 99 99 99 99
63 61 60 58 62 78 97 99 98 98 98 96 95 94 98 98 93 96 90 98 100 99 99 99 98 99 99 99 99 98 100 100 99 99 98 98 98 98
65 64 66 72 78 87 93 97 99 99 100 99 99 97 98 99 100 100 94 95 98 99 99 98 100 99 99 99 99 99 99 99 98 100 97 93 96 96
73 75 78 82 85 90 93 97 100 98 99 98 98 98 98 98 99 100 98 99 98 97 99 100 98 98 99 99 99 100 97 93 87 72 43 61 82 96
79 78 81 84 88 90 91 90 95 99 100 98 99 99 99 98 97 99 99 99 99 98 96 96 98 98 98 89 85 80 54 41 31 26 24 29 41 52
82 83 86 88 85 88 90 97 98 99 99 100 100 99 98 96 95 94 98 98 95 91 84 70 55 44 42 39 36 28 20 16 17 24 28 34 44 85
82 83 86 88 88 90 92 92 91 93 97 98 96 95 94 90 80 68 58 48 45 36 30 23 29 19 21 20 17 16 22 31 37 41 45 70 82 81
79 84 85 84 86 88 89 86 85 78 61 43 40 36 33 35 37 35 36 35 31 30 30 16 18 17 22 25 29 33 36 40 43 47 50 56 73 74
14 16 19 19 17 16 15 16 17 19 21 22 25 33 37 39 42 40 40 37 33 28 26 18 26 36 40 42 41 42 43 44 46 48 49 51 50 49
10 10 12 15 17 12 14 15 18 21 25 28 34 43 47 59 65 49 42 40 34 32 50 57 52 47 44 42 43 43 43 46 47 47 49 53 55 56
11 13 16 18 17 18 16 18 20 20 22 26 30 29 25 26 30 31 36 36 48 59 63 65 60 63 62 56 56 59 60 58 57 57 61 59 58 58
12 14 17 20 19 18 17 18 20 18 22 22 22 22 24 26 29 34 43 54 59 64 72 72 72 75 83 79 56 54 55 58 63 64 60 58 59 61
15 16 18 20 18 20 20 23 23 22 22 23 24 27 33 44 54 60 63 65 66 68 75 81 81 83 88 82 69 58 58 56 57 55 56 56 57 60
17 18 20 20 20 21 23 24 22 26 28 32 38 49 56 59 61 64 68 71 72 73 77 82 84 85 88 85 81 69 67 58 62 54 55 56 60 64
18 19 19 20 22 21 22 22 25 28 34 44 54 60 61 60 62 67 68 67 64 67 76 85 89 92 88 85 87 77 70 75 67 68 70 66 64 63
15 19 21 23 22 22 22 23 26 32 39 48 57 62 61 60 61 66 66 65 65 64 63 67 80 90 86 82 81 77 75 74 72 71 74 73 68 65
18 20 21 22 23 22 23 23 26 29 33 39 44 48 52 54 55 56 56 57 58 58 60 69 86 92 86 74 77 74 75 77 72 72 74 75 69 62
18 22 23 23 24 24 24 24 24 26 28 32 35 38 42 43 45 46 48 50 52 59 75 89 93 96 96 87 72 83 79 73 73 73 75 75 70 60
17 18 20 23 24 24 25 25 25 26 27 29 31 34 37 40 41 43 46 53 72 89 86 86 88 96 98 97 98 72 77 84 82 76 75 75 71 66
16 17 19 21 22 23 24 25 25 25 27 28 30 34 38 42 43 52 72 93 99 96 94 89 92 97 96 97 93 79 78 80 80 78 77 83 75 70
16 16 18 20 21 22 22 23 23 25 28 31 34 40 52 72 87 96 95 96 94 96 96 90 90 94 96 97 92 88 80 73 71 72 74 76 82 100
16 16 17 18 20 21 22 24 26 28 34 48 68 83 93 95 99 100 98 98 97 96 95 92 92 93 91 90 89 87 82 76 74 70 65 68 69 70

GFSNE_850_rhum_051.txt.gz
RH
84 80 83 80 70 94 99 98 100 100 98 91 93 100 99 97 99 92 85 84 89 96 99 100 100 100 100 99 99 100 100 100 98 99 98 99 99 99
60 54 56 68 71 86 86 97 100 99 98 100 100 100 96 97 98 92 86 92 99 94 100 98 100 99 100 100 100 100 96 97 98 98 98 98 98 99
62 63 66 66 66 66 72 91 99 99 99 99 99 98 96 95 93 88 86 99 100 100 100 100 98 98 98 99 99 97 92 98 99 98 99 98 99 99
73 71 70 71 74 77 81 90 100 98 99 99 94 92 92 91 92 94 92 91 90 95 99 96 99 100 98 97 93 98 99 98 99 99 99 99 99 98
76 76 77 77 78 79 82 91 99 99 100 96 92 93 92 89 86 86 87 89 91 89 94 91 89 92 95 97 98 99 99 100 100 98 94 90 77 91
81 80 77 79 79 81 83 87 95 99 100 96 94 100 99 92 89 88 87 87 87 90 91 90 90 91 92 91 91 91 94 94 86 77 58 40 29 59
83 81 80 82 81 83 86 89 96 99 100 100 99 98 94 92 90 87 87 84 79 76 75 73 68 61 52 48 44 41 41 39 35 25 19 19 22 45
83 81 84 86 87 84 83 83 83 84 85 90 92 92 84 74 57 43 36 33 34 31 28 26 26 20 18 17 16 14 14 14 16 23 30 35 43 92
56 61 63 63 65 55 49 33 21 16 15 17 21 22 22 25 27 28 30 32 31 30 26 16 17 18 19 21 24 27 30 34 38 40 42 43 57 68
10 12 12 12 11 14 13 14 15 16 20 20 20 22 24 28 28 30 35 33 27 28 25 25 33 44 46 44 41 42 42 43 45 46 47 48 50 62
10 10 11 12 13 11 13 14 15 17 18 18 19 21 26 29 27 30 33 29 27 33 47 54 52 48 47 48 49 48 49 48 47 48 48 48 50 51
11 13 14 14 15 14 14 17 18 18 20 22 21 20 20 21 22 24 27 30 42 54 57 60 59 63 60 56 54 55 55 55 52 50 53 57 60 61
14 14 15 17 15 16 15 18 17 16 19 19 19 19 20 23 27 33 44 55 61 65 66 68 69 73 76 69 55 59 59 62 67 63 61 62 63 62
13 14 16 17 19 20 20 20 19 20 19 20 23 26 32 40 52 58 60 62 64 68 77 79 77 79 85 81 66 62 64 64 65 66 68 64 62 62
14 14 15 17 20 22 22 20 19 20 22 27 35 46 54 58 58 60 62 64 66 68 70 74 79 80 81 81 73 70 70 65 67 68 70 71 72 71
15 17 19 20 21 20 21 21 21 24 28 34 43 52 58 58 58 59 63 63 58 61 67 70 71 73 73 75 78 70 74 79 72 72 73 69 68 68
13 18 19 20 23 22 21 21 22 24 28 31 38 44 48 51 52 56 57 56 54 53 55 57 61 69 75 80 80 76 72 72 70 70 75 71 67 66
16 20 20 20 20 21 21 22 22 23 23 26 30 34 36 39 41 42 44 45 47 49 51 56 73 91 88 78 77 71 73 73 71 72 72 70 57 59
18 20 20 20 21 22 22 21 21 22 23 24 26 29 31 33 35 37 39 42 44 48 60 83 90 95 97 92 75 79 78 74 75 74 77 74 69 58
18 18 18 18 20 21 21 21 21 21 22 24 26 28 31 32 34 37 40 46 62 82 86 89 90 97 98 98 96 73 76 78 80 78 77 75 70 66
18 18 17 17 18 19 20 20 20 22 23 25 27 30 34 37 42 55 75 91 97 95 92 89 94 98 96 98 94 79 77 78 79 78 77 81 76 69
17 17 17 17 18 19 20 20 22 23 26 29 32 41 57 75 86 93 95 97 95 96 94 91 90 94 95 96 94 89 80 74 71 71 74 77 80 90
18 18 19 18 19 20 21 23 26 30 37 51 68 80 88 91 95 96 96 96 95 93 92 89 90 91 88 89 88 85 80 75 73 71 67 67 70 71

GFSNE_850_rhum_054.txt.gz
RH
96 100 100 96 98 94 96 96 98 96 92 94 97 89 99 98 83 85 82 79 76 71 79 90 99 99 99 100 98 98 99 99 97 99 100 98 97 97
87 87 80 70 61 61 74 97 99 98 96 98 95 96 99 97 95 91 84 79 79 86 96 100 100 96 100 100 100 99 98 97 94 98 98 99 97 96
62 61 60 60 64 66 73 78 85 99 98 96 97 96 96 94 91 89 86 81 86 98 99 100 100 99 99 99 99 99 100 99 98 99 100 98 98 98
69 69 70 70 72 76 78 81 88 99 99 98 98 94 90 89 86 84 84 83 84 99 98 99 99 96 93 86 100 99 98 92 88 91 92 95 98 99
72 71 74 75 77 79 81 84 93 99 99 100 97 96 95 92 87 84 82 80 83 86 83 86 87 83 80 82 83 84 82 90 92 91 88 99 100 100
77 77 77 76 76 79 82 81 83 94 99 98 98 97 99 92 87 84 85 82 80 81 83 85 85 85 87 88 88 89 92 93 92 92 94 93 83 60
78 77 76 75 75 76 77 78 85 91 97 99 100 99 96 95 89 81 70 57 48 45 47 48 52 51 46 48 52 55 60 64 63 50 44 36 26 21
80 78 77 71 70 71 71 73 78 79 80 82 86 87 75 51 29 26 24 22 40 24 18 17 15 14 15 14 14 15 16 16 17 15 14 14 18 24
58 52 50 49 49 36 25 16 13 13 13 15 22 24 27 23 23 26 26 28 50 38 17 17 16 16 17 17 17 18 19 20 21 25 30 33 37 47
9 10 12 14 13 13 13 15 15 17 16 16 17 21 23 24 23 24 28 28 31 40 21 31 42 43 45 42 38 39 40 41 41 41 41 42 46 64
8 8 11 13 12 13 14 17 19 18 17 16 17 17 16 16 17 24 32 34 46 52 44 50 56 46 46 46 47 45 46 46 45 44 45 46 60 86
9 12 12 12 14 12 16 20 19 20 21 21 20 18 17 18 19 21 23 27 40 62 51 55 55 58 57 56 52 52 54 52 52 52 51 50 52 54
12 13 13 12 12 14 16 19 19 19 21 20 19 19 19 22 26 33 42 50 55 58 59 63 65 68 70 64 57 58 58 60 62 62 61 58 54 58
12 12 13 14 15 16 18 18 16 18 20 21 22 25 32 40 48 52 54 56 59 63 70 68 67 70 73 67 61 64 66 62 63 62 64 64 64 62
11 11 12 12 16 18 18 18 19 20 21 24 30 39 47 51 54 54 54 55 59 61 63 66 68 68 68 67 62 63 67 64 68 68 71 70 67 67
12 13 14 15 17 20 20 19 18 19 22 27 33 41 48 51 52 52 54 55 53 54 54 58 60 61 60 61 64 64 72 78 74 74 75 68 66 66
12 15 18 19 19 19 19 19 19 19 20 23 26 32 38 40 43 44 45 46 45 45 50 53 51 54 60 70 77 75 74 78 73 71 76 72 66 64
14 17 19 19 20 20 20 19 19 19 19 20 22 25 29 31 33 35 36 37 39 41 43 46 54 74 86 80 80 71 74 74 76 75 74 73 64 65
17 20 19 19 18 19 20 20 20 21 20 22 23 24 26 28 29 31 34 36 38 41 46 61 83 92 95 95 91 85 78 76 78 75 76 79 77 66
18 19 19 18 18 18 19 20 21 22 22 23 25 26 28 29 31 33 36 42 54 70 81 87 87 87 93 94 100 89 80 81 81 83 80 79 76 69
17 18 18 18 18 18 18 19 21 22 23 24 26 28 31 33 36 48 66 81 89 89 86 86 90 96 98 97 97 84 78 78 81 81 77 79 73 67
15 17 19 19 19 20 19 19 20 22 24 26 30 34 42 57 75 84 86 86 86 87 84 78 78 85 86 87 87 84 82 76 74 76 79 78 81 93
17 17 18 20 21 20 19 21 23 27 32 40 53 67 78 84 88 85 83 83 81 82 86 82 84 88 88 89 90 86 80 77 76 74 69 68 72 74

GFSNE_850_rhum_057.txt.gz
RH
96 94 89 84 100 100 98 99 99 94 86 88 93 96 89 87 80 79 74 76 74 71 64 67 84 96 91 98 100 90 90 93 95 90 93 95 98 95
100 99 98 100 98 85 78 82 84 91 95 92 89 93 92 92 87 84 83 77 81 81 90 98 100 99 99 100 100 100 100 100 100 99 97 98 97 97
76 75 70 70 64 66 68 72 73 81 94 97 94 91 93 86 86 84 82 80 84 94 99 100 99 99 98 100 100 99 100 98 97 96 95 97 98 98
75 75 73 74 73 73 74 72 74 79 89 97 99 98 91 85 84 83 82 82 80 83 100 98 98 97 92 87 92 93 94 98 97 98 100 94 94 99
78 78 76 75 72 73 75 77 78 88 100 99 99 95 87 87 87 84 82 81 79 81 85 85 92 92 91 87 84 82 83 87 92 89 82 88 93 93
78 78 77 77 76 74 76 81 85 94 99 100 98 97 98 84 86 83 83 81 78 78 79 80 82 84 84 84 84 83 82 82 83 84 85 85 85 89
79 78 78 77 76 78 82 83 90 90 92 98 100 100 98 99 90 77 55 36 34 21 21 21 21 24 27 32 40 48 54 55 63 73 78 73 63 49
79 80 78 70 67 65 70 72 78 78 76 82 85 93 96 67 46 31 23 19 30 40 19 13 12 12 11 11 11 11 11 12 14 16 18 19 20 18
74 63 51 45 32 22 16 10 9 11 12 14 22 49 44 35 24 22 23 24 36 26 16 12 17 15 18 18 16 18 18 17 17 14 13 15 20 25
19 17 15 10 9 9 8 9 9 10 12 13 15 18 20 21 23 26 23 21 22 47 24 24 34 34 36 37 34 37 36 36 37 37 36 36 35 36
10 10 9 9 9 11 10 11 11 14 13 13 13 14 14 14 16 19 20 24 24 55 42 44 44 39 40 43 43 44 43 45 46 45 45 44 44 44
10 10 10 10 9 9 10 10 15 21 16 15 13 13 13 13 15 16 18 20 31 53 62 54 48 52 49 62 50 50 52 53 53 53 50 48 47 48
11 12 12 12 12 10 9 11 17 18 15 16 15 16 17 18 20 26 34 42 47 52 54 56 55 57 58 53 47 53 55 55 56 56 55 56 57 58
12 13 13 13 12 10 11 13 13 13 15 16 17 21 25 29 36 42 45 48 50 52 59 60 58 60 62 55 51 56 58 56 58 57 60 61 60 59
12 13 12 11 11 12 14 15 14 14 16 18 21 26 32 40 45 47 48 48 50 52 54 55 54 56 58 56 55 52 54 55 65 68 68 66 62 62
14 15 13 12 12 15 15 16 16 16 17 20 25 32 37 42 46 46 45 47 45 45 44 47 49 52 52 52 54 52 59 71 70 72 73 66 62 62
14 13 13 16 17 16 15 16 17 16 17 19 22 26 30 36 36 37 37 37 38 38 40 46 46 50 49 51 59 66 70 72 71 70 73 74 66 64
13 14 18 21 19 18 17 17 17 18 18 18 19 21 24 26 28 29 30 31 32 34 37 41 50 58 60 67 77 74 74 74 76 79 78 83 70 63
13 16 20 22 19 18 17 17 18 19 19 18 19 21 22 23 26 27 29 31 33 36 41 50 64 84 100 95 81 90 81 83 83 84 81 81 80 68
18 16 19 20 20 19 18 18 18 18 18 20 20 21 22 24 27 29 32 36 44 59 74 82 86 89 98 95 100 91 84 87 87 84 81 80 78 74
24 21 17 18 19 19 20 20 19 19 20 20 21 23 25 28 30 34 43 62 83 86 81 76 78 90 100 100 100 84 73 65 72 80 81 81 74 69
27 26 21 16 18 20 20 22 22 20 21 22 24 27 31 37 47 62 76 82 81 79 77 75 75 78 76 81 84 83 77 70 69 74 80 84 88 100
28 29 27 18 17 19 21 23 22 22 24 28 34 45 59 71 79 81 83 82 82 82 82 77 79 88 88 96 99 100 90 78 78 73 68 66 70 74

GFSNE_850_rhum_063.txt.gz
RH
97 99 99 92 93 93 95 99 100 100 95 99 99 94 95 93 93 83 76 76 78 75 68 63 73 97 99 99 98 82 87 100 96 92 88 99 100 100
98 98 97 93 97 99 91 98 98 100 98 96 95 97 96 98 90 81 77 80 79 76 73 73 87 97 97 98 95 91 94 95 96 94 91 98 100 100
96 99 98 99 95 94 93 94 95 82 98 98 100 98 99 97 83 83 84 81 78 76 75 75 91 95 92 87 89 98 100 100 100 100 100 100 100 98
96 98 93 90 91 90 80 82 75 70 81 92 94 99 98 87 91 84 86 80 77 73 70 76 80 86 93 91 86 88 95 95 97 98 100 98 98 98
90 88 85 84 84 84 81 78 77 78 79 83 89 98 94 91 88 85 86 83 79 75 68 67 72 76 82 86 87 88 89 88 85 84 83 82 85 88
98 95 92 85 83 80 81 82 83 81 82 82 99 100 95 83 83 83 82 78 68 49 30 23 19 26 40 59 69 74 78 80 80 80 79 79 79 80
100 96 92 87 82 81 83 83 82 83 90 94 97 99 96 77 62 59 46 28 17 12 14 21 16 13 12 10 12 14 15 18 22 27 37 50 63 71
97 94 95 90 85 82 78 68 68 71 78 71 84 77 58 53 46 33 19 15 13 13 16 12 10 10 10 10 10 10 10 9 8 9 10 12 14 16
100 98 94 90 78 61 39 25 17 12 12 12 17 24 31 33 29 20 13 12 12 12 14 12 14 18 19 22 23 27 28 25 22 23 24 24 20 14
94 94 84 55 32 16 12 11 10 10 11 10 13 16 20 18 18 18 15 15 14 15 18 20 26 32 32 32 34 35 35 36 36 38 39 38 37 36
46 30 18 16 15 11 11 9 9 11 12 10 10 11 11 11 11 11 10 11 13 19 27 34 34 34 35 39 43 42 43 44 46 48 49 48 47 45
11 14 12 12 13 12 10 10 11 12 13 16 15 13 12 13 12 11 12 13 19 30 40 36 37 37 40 42 45 44 45 46 48 50 52 53 53 52
13 14 14 14 12 12 10 10 12 13 14 12 12 12 12 13 14 16 20 28 34 38 38 41 40 42 39 38 39 41 44 50 50 51 51 52 52 53
15 15 16 15 12 9 8 10 11 12 12 11 12 12 14 16 20 28 34 37 40 42 43 43 42 41 39 36 38 43 47 48 46 47 52 59 60 58
12 14 14 12 10 9 10 11 13 13 12 12 13 14 16 20 25 32 38 41 42 41 42 44 43 41 40 40 42 40 38 39 44 60 65 64 62 62
12 13 15 15 13 12 12 13 14 14 13 13 13 14 17 21 27 29 33 36 37 40 39 38 37 37 38 39 40 38 41 47 51 62 70 62 63 63
13 14 14 16 16 17 17 16 16 15 16 15 13 13 16 19 21 23 25 27 27 27 29 32 33 35 36 39 42 44 51 55 58 63 68 61 56 59
16 14 13 14 15 18 18 18 18 17 16 15 15 16 16 17 19 19 20 21 22 25 28 31 34 38 45 50 56 49 53 52 50 55 64 67 47 47
18 18 17 16 16 16 18 19 17 17 18 18 18 18 18 18 19 20 21 22 24 26 29 34 41 56 70 71 48 53 48 48 52 49 58 61 59 42
20 20 20 22 22 20 18 17 18 18 19 20 20 20 20 20 20 21 23 24 27 30 35 46 66 80 87 83 83 43 55 56 60 66 65 69 69 65
21 21 23 26 26 26 24 19 16 18 20 21 23 22 22 22 22 24 27 30 36 47 62 70 78 84 98 98 86 54 51 62 73 76 71 73 68 66
28 46 42 41 60 31 30 27 20 18 19 21 24 24 23 24 26 31 38 49 64 76 79 78 79 84 85 88 74 61 56 66 70 74 75 78 83 99
97 96 56 47 94 49 45 47 82 78 43 21 24 25 25 26 32 43 60 74 80 83 83 81 86 89 84 84 80 77 78 75 73 67 63 69 72 75

GFSNE_850_rhum_066.txt.gz
RH
55 69 79 99 99 96 91 99 96 100 100 98 100 97 99 97 96 89 83 68 66 71 72 79 72 99 98 95 92 84 86 99 86 92 99 100 99 99
65 97 99 99 98 93 88 86 99 100 100 99 100 98 100 100 95 90 79 71 72 72 70 69 82 93 98 94 89 81 84 90 98 98 94 86 96 100
99 99 97 99 98 95 91 93 88 88 99 99 99 100 100 100 99 89 82 76 76 75 74 73 82 93 92 91 90 81 77 81 88 85 95 97 100 100
99 97 97 97 98 97 99 97 99 99 97 99 100 99 99 100 96 88 87 83 82 78 77 71 78 84 86 89 88 87 93 96 99 99 99 97 96 100
100 99 97 100 100 100 97 92 87 84 79 83 98 98 99 97 88 91 84 85 84 78 74 67 68 73 74 80 85 86 84 83 84 87 90 92 94 93
100 100 100 100 100 99 93 90 88 85 86 90 94 100 100 98 93 92 87 84 78 65 43 24 18 18 28 49 68 77 82 83 82 79 76 75 74 73
99 100 100 100 100 96 90 90 90 88 87 93 99 100 100 86 68 74 68 51 29 17 16 14 16 15 11 10 11 13 17 25 38 51 57 60 66 71
100 99 100 100 98 96 97 90 86 82 85 93 99 99 78 64 58 47 32 18 14 12 18 16 11 11 12 11 11 10 9 8 7 8 8 9 10 11
100 99 100 100 100 94 88 67 52 46 43 46 44 36 32 37 31 26 18 12 13 13 14 14 13 17 19 23 25 27 28 26 24 22 22 21 21 18
100 100 100 100 93 66 36 23 16 13 11 11 14 20 21 20 20 16 14 12 12 14 17 16 23 28 29 30 32 33 34 34 36 37 38 37 36 36
99 96 76 47 30 21 18 12 12 13 13 12 13 15 13 11 11 11 10 10 9 14 22 28 29 32 33 36 39 40 41 42 43 44 45 45 46 45
33 22 15 14 16 14 14 13 13 15 15 16 18 15 13 12 10 10 9 10 12 19 30 35 33 35 37 39 45 41 43 42 43 45 47 47 47 46
13 14 13 13 13 13 12 11 12 16 16 17 17 16 15 13 12 12 14 17 26 34 37 37 36 38 39 40 40 39 40 45 49 49 47 47 48 47
14 17 17 15 15 13 11 11 11 12 14 14 15 16 15 15 16 18 24 30 35 39 39 40 38 40 38 36 36 40 44 46 44 43 43 47 51 52
14 16 18 17 15 11 10 11 13 13 15 15 14 14 15 17 18 24 30 36 40 42 42 41 40 39 37 36 37 36 35 37 39 44 57 58 54 55
12 13 15 15 16 15 15 14 14 16 17 15 14 15 16 18 21 23 27 33 38 38 37 36 36 34 32 33 34 34 37 41 45 52 55 48 49 58
21 19 17 17 18 18 18 19 18 18 17 17 17 16 17 18 20 21 23 23 26 31 34 33 30 30 31 32 34 37 43 43 47 50 55 43 40 52
21 18 16 15 15 17 18 19 18 18 19 19 17 16 16 17 17 17 18 20 22 23 25 27 29 30 33 37 44 46 43 42 43 44 50 52 31 35
19 18 17 17 16 16 18 21 20 19 18 17 18 18 18 19 19 18 18 19 20 23 26 28 31 34 41 53 54 54 47 44 45 45 51 52 49 41
20 19 19 20 21 23 23 20 20 21 19 19 19 21 20 20 20 19 21 22 23 25 27 31 35 48 68 77 65 55 66 59 59 54 54 64 63 54
22 21 22 37 26 28 27 26 24 20 19 22 19 21 24 23 21 22 24 24 26 29 37 48 65 76 84 95 79 59 58 60 63 71 72 72 63 54
31 52 57 54 36 38 53 43 31 29 22 20 22 21 24 26 24 25 27 30 34 44 58 68 76 82 87 91 85 78 60 46 67 74 75 78 79 86
83 82 89 90 97 97 94 94 69 37 38 71 91 88 29 27 28 32 30 60 47 62 71 73 77 81 85 94 95 86 69 68 76 72 64 69 73 76

GFSNE_850_rhum_069.txt.gz
RH
49 53 60 73 87 98 98 96 98 100 99 97 100 100 99 100 93 95 93 81 67 64 63 61 61 94 98 98 94 87 87 99 89 60 75 80 98 94
51 58 66 84 98 99 94 90 97 99 100 100 100 100 100 100 100 98 95 82 72 73 73 67 67 89 99 98 95 89 83 96 96 98 96 99 100 100
59 61 82 98 99 95 94 98 97 100 100 100 100 100 100 100 100 100 96 84 77 77 75 69 75 85 93 97 94 91 84 87 98 99 97 100 99 100
79 99 98 98 99 98 97 98 97 96 100 99 100 100 100 99 98 100 97 86 82 80 77 71 72 80 88 88 90 90 94 96 99 100 98 95 94 100
98 100 97 100 99 99 99 98 99 100 100 99 100 100 100 99 99 97 86 87 85 85 82 76 67 67 70 76 78 84 87 90 84 93 97 85 83 90
97 99 99 99 99 98 99 99 100 100 96 93 97 100 100 100 99 94 91 88 84 80 74 52 28 20 22 39 60 70 78 81 82 82 79 77 74 86
98 99 100 99 100 99 99 100 99 98 98 100 100 100 100 100 97 88 88 82 66 42 20 15 16 14 13 12 12 14 22 48 65 72 74 75 75 74
98 100 100 100 99 100 100 96 96 98 100 100 99 99 100 99 76 69 64 44 24 15 13 14 13 10 10 10 10 9 8 8 8 10 11 11 11 12
100 100 100 100 100 100 100 100 92 86 85 82 90 92 83 64 57 55 41 28 17 13 13 14 12 12 14 15 17 19 20 21 19 16 14 14 14 13
100 100 100 99 99 100 91 70 40 25 18 12 23 29 36 37 37 28 25 18 16 14 14 16 15 20 24 26 26 29 30 30 31 32 32 33 32 31
100 99 100 100 96 65 36 23 16 15 17 13 13 14 16 18 18 18 14 14 12 12 17 21 23 27 29 32 33 37 38 39 39 39 41 41 41 41
99 84 64 46 26 20 18 17 16 14 15 18 17 13 12 13 12 12 12 11 10 11 18 26 32 32 33 38 40 42 41 39 38 38 39 40 40 40
23 18 19 17 15 13 14 15 15 16 19 19 20 17 15 14 13 14 13 13 14 21 33 38 34 34 34 38 42 42 37 37 38 41 41 41 41 40
13 15 17 18 17 20 16 15 12 12 17 18 17 15 14 15 16 15 17 21 27 30 34 36 37 38 36 35 35 34 38 41 42 40 38 38 39 40
14 17 18 20 22 18 14 11 11 12 15 15 14 14 15 16 15 16 19 27 33 36 37 38 38 37 38 36 34 34 35 37 37 37 37 40 46 51
13 14 17 16 17 17 17 16 15 15 16 15 14 14 14 15 15 15 19 27 32 36 39 38 36 35 34 32 31 31 33 36 39 44 43 40 42 45
16 15 15 15 16 18 19 18 18 19 18 18 17 17 17 17 18 17 18 23 24 29 31 31 30 29 28 28 28 31 34 39 49 48 44 34 34 40
22 19 18 18 17 16 18 19 21 21 20 20 21 21 17 16 16 15 16 18 20 22 24 26 26 26 25 26 30 34 43 49 53 47 45 41 27 31
22 18 18 17 16 16 16 17 19 21 23 26 22 19 19 18 18 17 17 18 18 20 22 22 23 24 26 29 36 48 56 58 56 56 54 50 37 30
21 18 17 18 18 18 19 20 21 21 22 20 20 20 22 21 22 21 21 21 22 22 23 24 25 28 33 45 61 58 68 68 71 60 47 46 47 44
20 18 18 20 20 21 24 32 33 26 23 23 21 21 25 28 23 24 24 25 26 24 25 28 36 47 60 74 70 59 71 77 81 66 50 63 62 54
22 21 22 31 42 57 44 27 30 32 30 29 24 23 42 36 26 27 28 28 30 29 37 50 64 72 84 87 85 73 70 75 80 66 68 81 79 78
84 52 55 47 58 76 69 59 57 68 84 92 62 48 35 62 82 55 32 30 32 38 93 77 93 96 95 96 89 76 73 75 77 59 61 75 74 74

GFSNE_850_rhum_072.txt.gz
RH
47 50 54 57 67 85 96 89 96 100 98 96 95 94 100 100 100 100 98 97 91 76 64 65 61 82 99 96 97 90 82 94 88 78 48 79 92 91
51 56 64 65 78 87 95 95 93 93 99 94 100 98 100 100 100 100 99 100 92 78 69 69 64 71 99 99 98 99 89 98 92 95 82 83 99 98
55 60 67 75 86 97 96 94 90 89 100 90 96 98 100 99 100 99 99 99 93 77 75 72 65 77 96 98 96 97 90 86 93 93 100 100 100 100
57 65 73 98 99 98 98 98 94 99 100 100 100 100 100 100 100 100 100 100 94 81 81 77 71 69 80 90 95 93 93 96 99 99 100 100 100 99
63 71 95 99 98 99 97 98 98 99 99 100 100 99 100 99 99 98 99 100 92 88 86 82 78 72 68 69 80 85 90 93 96 98 85 86 92 97
70 81 90 99 98 97 100 98 99 99 99 99 98 100 100 99 99 99 99 98 96 91 87 79 68 41 30 33 50 66 73 82 87 86 85 87 75 71
80 89 96 98 100 98 99 98 100 98 99 100 100 100 99 99 99 100 94 95 92 85 72 44 22 17 17 16 14 15 24 50 67 77 80 82 80 74
90 93 95 100 98 100 100 98 100 100 100 100 100 100 100 99 100 93 77 80 67 36 20 17 17 15 13 13 11 10 9 8 10 11 19 30 45 55
90 95 99 100 100 100 100 100 100 100 100 99 99 99 100 100 83 64 62 53 33 20 13 13 14 14 16 15 15 17 18 15 12 8 6 7 7 7
93 99 99 99 99 99 99 100 99 75 55 46 64 81 73 66 52 46 41 27 19 15 14 15 16 18 24 25 25 26 28 27 25 25 23 23 24 24
100 99 98 99 98 100 98 72 45 28 19 16 14 18 20 30 32 26 20 16 13 13 16 19 20 24 29 31 32 33 35 35 35 34 35 36 35 35
100 99 100 98 95 64 29 21 18 18 18 18 17 17 15 14 12 11 10 9 9 10 15 23 30 31 34 35 37 38 38 39 37 36 35 37 35 34
75 60 40 32 20 19 20 21 18 18 18 19 21 20 18 16 13 12 10 9 9 10 22 26 34 34 35 36 37 40 40 35 34 34 35 38 36 35
16 17 18 18 16 16 16 19 15 14 18 20 20 17 15 13 13 13 12 13 15 19 24 30 34 36 37 36 36 33 33 33 35 38 38 37 34 33
12 14 18 20 21 19 16 17 14 13 16 17 16 15 15 13 12 12 14 16 21 27 30 34 36 37 37 36 37 35 34 34 35 34 34 34 34 36
13 15 17 22 21 24 20 16 16 18 20 18 17 16 16 15 15 19 16 15 22 27 32 36 37 36 35 35 33 32 31 32 34 35 35 35 38 38
20 16 16 16 17 18 20 21 20 19 17 18 20 18 17 18 18 19 18 16 20 23 26 30 31 31 29 28 26 27 29 32 36 40 42 37 36 38
30 21 20 19 18 17 19 22 22 21 20 20 18 18 24 20 18 17 17 16 17 20 21 23 24 24 22 23 24 27 33 42 53 55 53 44 37 37
34 22 23 24 23 22 20 19 20 21 24 20 21 32 31 21 20 19 19 19 19 19 20 22 22 22 23 23 28 31 43 64 66 63 69 66 50 38
28 18 18 19 19 20 20 19 18 20 20 20 22 24 20 20 23 23 23 22 21 22 21 22 22 24 26 30 33 45 65 84 81 73 71 69 57 41
23 17 17 18 18 19 20 21 22 29 32 37 60 36 24 23 22 30 30 25 26 24 22 24 30 33 36 43 55 62 92 97 94 80 74 73 59 42
44 27 21 20 20 22 24 25 26 30 41 39 29 27 26 24 26 52 49 28 29 29 28 30 36 56 68 78 83 89 91 94 95 79 79 79 68 63
100 78 30 23 23 30 57 80 89 79 41 31 36 41 47 33 51 35 36 52 50 42 33 33 42 90 94 95 95 89 87 81 74 70 68 71 73 74

GFSNE_850_rhum_075.txt.gz
RH
46 48 48 49 54 56 62 99 93 99 95 99 94 92 94 96 99 100 100 100 99 97 90 73 67 65 95 100 99 95 87 89 92 88 49 43 79 90
51 48 49 53 57 61 74 90 97 91 97 100 95 97 95 99 100 100 100 100 99 98 94 78 72 67 86 99 99 99 96 98 92 97 84 57 79 94
48 48 49 55 58 67 77 94 93 91 94 100 90 100 99 100 100 99 100 100 100 99 91 78 76 72 85 98 99 99 92 90 93 97 98 92 85 99
50 49 50 60 66 80 98 95 95 94 100 100 100 100 100 100 99 100 100 100 99 99 91 79 77 73 72 87 95 96 92 87 91 99 98 97 97 98
49 51 59 68 80 97 98 94 94 94 100 100 100 100 100 100 100 99 99 99 98 100 89 84 79 76 73 67 74 86 93 92 86 94 99 100 100 95
54 59 64 74 78 92 95 94 95 95 98 100 100 100 100 100 100 100 100 99 99 96 93 87 82 74 62 47 50 63 75 82 88 94 92 89 89 98
59 63 73 84 94 96 100 100 100 100 99 100 100 100 99 100 99 100 100 100 98 97 92 85 72 44 21 15 14 14 30 58 76 85 88 84 83 85
68 75 84 91 92 91 94 100 99 98 99 100 98 99 100 99 99 98 99 99 92 82 80 53 24 17 17 16 13 11 10 11 14 39 64 74 78 80
65 76 86 90 96 99 100 100 100 99 100 100 99 99 98 98 97 100 96 66 72 46 20 17 16 17 17 15 14 14 14 14 10 9 9 10 13 18
74 84 91 96 99 99 99 99 100 99 99 97 99 99 100 99 90 76 73 69 46 29 19 15 15 17 18 20 21 21 25 27 26 24 20 17 15 16
89 93 93 98 98 98 98 99 98 78 45 24 19 25 38 46 51 49 43 39 24 16 16 16 17 17 23 27 28 30 32 34 33 33 33 34 33 33
100 98 98 98 98 99 99 80 42 29 22 20 18 15 16 24 22 22 18 16 12 11 12 17 19 22 28 30 34 36 36 38 39 38 37 36 35 35
86 96 99 99 86 53 32 23 22 20 20 20 21 19 17 14 14 11 10 10 10 9 14 15 19 28 31 34 37 39 40 41 37 34 33 32 32 34
67 48 36 33 24 18 16 18 17 16 18 21 22 21 20 16 15 12 12 11 11 12 14 23 30 31 33 35 34 34 39 43 37 33 34 36 34 32
79 18 16 18 19 21 18 25 19 15 16 20 22 21 20 16 15 13 14 17 20 22 23 26 29 32 34 36 36 35 34 34 34 34 34 33 31 31
99 23 14 17 20 22 25 24 20 16 19 18 20 19 18 18 15 16 20 20 22 27 27 29 32 34 35 37 37 36 34 33 31 32 32 32 33 33
100 61 15 16 18 21 21 24 23 22 19 21 23 20 18 19 20 19 20 21 23 27 26 26 28 30 31 31 29 28 27 27 29 30 31 32 38 40
99 98 29 15 16 17 18 20 23 22 21 22 23 24 23 22 24 23 21 22 24 27 25 23 22 23 23 22 21 23 26 30 36 39 42 43 44 45
98 100 67 22 16 17 17 19 21 22 24 23 23 21 23 28 30 23 21 22 22 23 23 22 20 20 22 20 23 25 27 39 55 60 60 58 50 49
99 99 95 27 21 21 21 21 21 22 21 20 22 22 24 29 34 24 21 25 24 25 25 23 21 22 22 24 27 33 37 54 86 94 91 84 70 56
99 99 96 40 22 22 22 23 24 23 20 20 23 24 40 78 74 24 23 26 37 36 27 26 27 30 26 27 44 53 55 68 93 95 95 87 69 53
99 99 74 32 22 23 22 21 22 22 22 28 37 49 80 43 29 26 24 42 55 47 32 33 33 31 30 37 69 80 84 88 94 96 90 76 72 68
98 99 92 52 28 26 26 24 24 24 25 27 35 42 45 32 31 32 29 34 43 40 43 43 41 38 36 42 80 88 89 90 88 85 74 71 75 70

GFSNE_850_rhum_078.txt.gz
RH
64 46 46 48 50 49 50 57 94 99 84 90 96 84 86 93 97 99 99 100 100 99 99 94 87 69 61 71 98 98 93 83 88 94 77 59 90 88
46 45 49 50 48 51 55 64 78 95 99 96 96 92 84 94 99 100 100 100 99 100 98 95 90 74 68 82 99 98 94 98 90 92 91 79 45 78
47 52 50 50 49 50 53 62 87 91 96 90 97 95 92 92 100 99 99 99 100 100 99 97 86 75 70 75 93 96 90 95 97 92 96 95 59 62
53 51 49 49 48 53 61 70 82 93 92 99 100 99 97 100 100 100 100 100 100 99 97 98 87 81 76 71 88 93 88 87 90 100 94 99 100 100
51 50 50 49 51 58 68 88 87 93 95 100 100 100 99 100 99 100 100 100 100 99 99 100 88 81 80 74 71 80 90 85 87 87 100 100 90 99
53 53 52 53 58 68 78 80 90 93 94 99 100 99 100 99 100 100 100 100 100 99 98 98 91 86 80 72 62 59 66 78 82 87 90 97 100 100
57 55 57 59 62 67 70 89 94 97 100 100 100 100 100 99 98 99 100 100 100 99 100 97 93 84 72 44 22 18 27 53 68 78 86 89 90 92
57 56 55 54 61 82 90 92 96 99 99 99 99 99 99 99 100 100 100 100 99 98 100 94 84 64 31 18 14 14 13 12 27 58 76 84 86 83
59 58 58 67 83 88 91 94 95 97 98 100 99 100 100 99 100 99 98 98 100 81 49 72 41 23 18 16 13 11 12 10 9 11 14 38 58 69
66 67 70 74 83 89 94 99 99 99 99 99 99 99 99 99 98 99 100 99 77 64 48 27 17 16 16 16 17 16 18 21 19 17 12 8 8 8
72 68 67 78 94 97 96 93 94 98 99 92 72 77 92 99 99 93 87 72 64 44 24 19 16 17 19 21 22 24 25 28 28 27 28 28 28 27
73 76 85 85 97 97 98 99 99 96 66 32 19 14 17 30 51 62 58 46 36 21 14 16 17 18 21 23 25 29 32 32 35 36 36 37 36 36
83 82 99 100 99 100 98 87 69 30 21 19 19 18 20 22 29 28 26 26 21 15 10 15 17 21 32 32 28 32 36 38 39 39 37 36 34 36
83 90 90 100 99 94 50 32 23 22 19 19 20 20 20 18 16 16 14 13 14 11 14 22 26 29 32 33 31 31 35 37 38 38 34 32 32 34
96 97 68 55 58 42 23 20 19 19 19 19 22 23 23 21 18 16 15 14 14 14 16 20 32 35 35 36 32 31 32 32 33 32 33 33 34 32
98 99 83 23 28 29 27 22 23 22 19 18 21 24 23 20 18 15 17 19 22 22 24 27 32 35 35 36 36 35 34 34 30 30 30 31 31 31
99 100 99 36 19 26 28 31 36 29 21 21 20 19 20 18 16 15 20 23 23 21 22 24 27 31 33 35 34 33 31 29 28 28 28 28 29 30
99 100 99 92 24 20 23 27 33 32 26 23 24 24 20 19 18 20 22 23 23 23 23 22 21 23 26 25 23 22 22 22 24 25 28 30 32 38
98 100 99 99 89 22 18 21 22 23 26 26 25 24 25 25 22 27 34 27 23 25 26 24 23 22 22 22 21 21 24 25 27 30 38 46 48 51
100 100 99 99 99 73 19 19 21 23 26 26 25 24 24 24 29 39 39 29 24 28 27 25 25 24 24 26 24 22 30 36 39 48 62 80 79 77
100 99 99 100 99 99 41 22 23 24 23 23 23 24 25 26 27 32 47 46 25 26 27 41 39 30 26 25 27 25 33 53 57 64 81 87 82 74
99 99 99 99 99 99 78 28 32 34 30 25 22 22 24 27 39 78 86 57 27 25 44 50 52 32 30 30 28 30 43 74 83 87 87 87 86 76
98 99 99 99 99 100 76 30 29 29 27 24 23 23 31 42 62 91 40 32 31 31 41 48 48 40 38 36 34 37 50 80 89 87 83 82 81 70

GFSNE_850_rhum_081.txt.gz
RH
98 85 84 82 53 48 52 55 59 89 85 84 91 93 85 80 84 96 96 99 96 98 99 98 98 93 87 72 63 79 80 83 81 91 86 79 57 83
93 88 61 44 49 54 52 53 61 87 98 89 93 93 92 93 83 85 99 100 99 100 100 99 99 91 83 72 69 94 93 86 92 94 91 81 62 80
90 59 48 49 55 54 55 57 64 79 97 100 100 100 91 93 88 91 100 100 100 100 99 99 99 93 87 73 73 87 91 87 97 94 87 93 90 53
56 50 50 54 53 53 54 58 71 77 90 100 99 98 98 95 98 100 100 100 99 100 98 99 95 92 83 76 72 78 92 90 91 95 92 95 99 74
54 52 55 53 50 50 56 66 79 82 83 88 100 100 97 97 97 98 98 99 100 99 99 100 99 98 87 80 75 72 79 89 86 90 100 90 99 96
55 55 54 54 56 58 59 61 78 86 85 88 100 98 97 98 100 99 100 100 100 100 99 99 96 98 87 82 77 70 67 66 84 89 88 100 100 100
59 58 57 58 56 57 59 58 63 82 87 99 100 100 100 99 98 99 100 99 100 100 99 96 98 96 90 82 70 49 32 41 62 78 88 85 95 100
62 61 60 58 58 59 62 71 79 97 97 100 99 100 95 98 100 100 99 99 100 99 97 99 97 94 85 69 32 18 15 13 17 52 73 83 83 84
65 62 65 65 62 62 67 78 84 87 94 100 100 96 96 98 100 100 100 99 100 96 98 83 84 84 58 24 18 14 11 11 11 13 30 61 77 84
69 68 65 63 65 70 77 84 90 98 99 99 100 99 98 98 100 100 98 98 99 99 88 54 34 22 18 18 16 13 14 16 15 11 9 10 15 32
72 71 69 66 68 84 97 100 99 99 96 98 99 99 98 98 98 99 98 100 99 84 67 55 29 19 18 19 19 16 19 23 25 21 21 16 11 9
76 74 74 74 80 99 99 100 98 98 99 98 80 40 30 61 94 98 96 89 96 68 40 32 20 19 20 20 22 27 25 26 28 29 30 32 32 30
86 83 80 82 96 99 99 99 100 99 88 63 31 19 18 22 38 56 57 64 51 40 15 18 16 18 22 33 24 27 35 35 32 32 34 34 34 32
89 89 90 92 100 100 100 100 98 97 43 26 23 20 19 20 21 27 30 30 26 18 14 14 19 21 22 27 30 32 35 36 35 34 34 30 30 29
97 98 94 95 100 100 100 99 72 47 26 24 22 22 19 20 19 19 16 14 14 13 11 12 18 23 28 34 32 31 30 32 33 34 34 32 29 29
100 99 100 99 86 76 79 91 46 27 23 20 21 25 24 22 22 21 17 15 16 15 17 18 20 26 31 32 32 32 33 33 30 29 29 28 29 29
100 100 100 100 99 48 56 59 35 33 25 22 23 26 23 23 22 19 16 16 20 26 22 22 24 27 29 30 32 33 33 33 31 30 28 27 27 27
100 100 100 100 100 79 31 39 33 33 32 27 24 24 23 20 20 19 16 19 26 25 22 22 23 23 24 26 26 27 26 25 24 23 22 23 24 28
99 99 99 100 99 98 95 28 26 29 36 32 26 26 24 22 21 20 18 23 25 26 24 23 24 23 23 22 24 21 21 21 23 24 26 27 31 40
100 99 99 100 99 99 98 89 27 31 30 32 34 31 28 28 28 22 23 32 36 29 26 28 32 29 26 26 25 23 22 22 26 34 39 44 49 57
99 99 100 99 99 99 99 99 83 24 22 26 32 30 28 27 27 26 30 40 42 42 32 28 29 32 44 42 35 27 25 24 27 45 55 59 64 70
99 99 99 99 99 99 99 99 99 57 24 25 28 29 28 27 25 25 30 34 49 75 35 26 29 47 51 46 31 28 28 27 34 57 74 78 78 80
98 98 99 99 99 99 99 99 99 91 31 27 27 26 25 24 25 26 28 54 86 68 34 28 31 49 52 60 44 40 36 32 32 41 59 76 80 78

GFSNE_850_rhum_084.txt.gz
RH
90 99 100 100 100 94 90 77 58 60 62 64 83 88 92 97 88 85 85 92 94 100 100 99 99 95 91 88 81 75 64 73 79 67 74 86 78 63
100 98 96 95 91 77 58 51 56 59 69 68 81 95 97 100 96 91 89 87 93 96 92 99 100 94 95 86 82 74 70 80 77 83 83 81 80 62
100 92 96 93 73 55 56 56 54 58 69 83 86 88 100 92 99 88 89 94 98 99 99 100 98 98 90 84 83 70 70 86 79 90 83 79 68 76
98 96 98 75 54 58 58 56 56 63 86 100 99 100 100 99 85 89 96 99 100 100 98 99 100 98 86 85 81 73 75 81 82 91 95 90 86 92
97 90 67 54 54 58 57 56 62 70 83 99 98 98 99 99 99 93 88 100 99 98 99 99 100 97 88 88 83 78 73 71 86 88 92 92 100 95
98 82 59 57 58 58 58 61 70 81 100 99 100 99 99 100 99 93 92 93 100 100 100 100 100 96 89 96 84 79 74 68 70 83 88 90 96 100
82 61 58 58 58 57 57 55 60 70 96 99 98 99 100 95 86 90 97 99 98 99 99 99 99 93 98 93 86 78 67 48 46 71 85 88 100 100
68 65 64 62 60 60 60 60 58 61 71 99 99 100 100 99 97 94 99 99 100 99 99 100 95 98 97 91 81 55 24 14 13 37 70 82 85 96
68 68 66 65 64 62 60 62 72 73 76 95 97 99 100 99 99 99 100 100 100 100 98 98 97 85 88 80 41 18 13 11 11 12 32 62 79 84
73 72 71 71 67 68 65 68 74 81 85 97 99 100 99 100 99 100 100 100 99 98 99 99 86 50 40 29 21 16 12 13 12 9 11 17 47 70
78 76 76 74 70 72 72 78 81 87 92 87 94 96 97 100 100 100 99 97 98 98 99 99 62 42 25 19 18 15 15 20 23 19 16 8 9 11
85 82 80 78 75 75 75 81 82 85 90 97 96 98 98 100 99 98 97 98 100 96 80 65 54 24 20 17 20 24 19 22 29 29 28 25 20 15
90 87 83 80 78 81 80 82 91 98 99 99 100 94 59 28 34 66 73 89 96 84 32 34 25 19 16 26 20 23 26 28 29 34 35 35 34 32
93 91 91 85 85 82 89 96 100 98 99 95 85 47 24 19 21 24 49 78 56 61 48 17 14 13 14 18 27 26 27 30 31 35 36 36 34 32
99 100 99 98 92 91 98 99 99 99 100 92 48 25 20 20 20 27 40 34 30 29 22 16 14 15 18 22 22 26 28 30 32 34 35 36 34 30
100 100 99 100 100 93 100 100 100 100 89 65 32 29 28 22 22 22 18 17 16 13 12 11 12 18 24 27 27 27 28 29 27 28 30 31 30 29
100 100 100 99 99 100 100 100 100 97 65 40 34 32 27 26 26 25 22 18 14 13 13 18 18 19 22 26 27 28 30 29 30 31 30 28 28 27
99 99 99 99 99 100 100 95 82 74 51 36 34 28 24 26 27 26 22 17 15 18 26 23 21 22 25 27 26 27 28 28 28 28 26 23 23 24
99 99 100 100 99 99 99 97 75 57 40 32 34 32 26 26 31 26 22 18 17 24 27 23 22 23 23 22 24 25 24 22 22 21 21 23 26 28
99 99 99 100 99 99 100 99 98 77 94 36 44 44 31 27 27 24 21 20 19 24 26 26 25 25 26 28 26 26 27 24 21 22 26 30 39 48
98 99 99 100 99 99 99 99 99 98 98 44 37 46 40 34 32 30 23 21 23 28 33 36 32 36 32 30 41 46 34 27 24 24 30 40 55 62
100 98 98 99 99 98 98 99 99 99 98 82 40 38 40 37 32 30 31 29 25 40 45 47 41 33 30 37 48 48 33 28 27 28 31 43 60 73
99 100 99 98 98 98 98 99 99 99 98 97 48 27 30 33 33 30 28 30 33 38 44 77 45 27 27 46 52 60 49 45 41 32 32 36 46 61

GFSNE_850_rhum_087.txt.gz
RH
89 94 95 98 95 94 100 98 88 93 78 62 72 71 79 99 97 95 84 82 86 86 92 100 99 93 98 95 91 86 78 74 64 60 65 64 87 76
98 100 100 99 100 100 100 99 96 87 71 69 69 74 84 99 99 97 96 94 89 88 86 93 92 99 100 93 92 84 79 72 66 72 71 58 73 78
99 100 100 99 100 94 93 77 63 69 66 73 80 88 94 97 96 98 87 95 94 97 95 98 99 100 100 99 88 80 78 69 67 65 71 77 60 58
99 100 100 100 100 98 75 57 61 66 65 65 74 93 99 92 94 99 98 96 100 99 99 99 99 100 99 97 87 83 81 71 69 74 83 82 98 66
99 100 100 100 100 88 54 53 58 60 61 65 66 86 98 98 98 95 99 99 90 91 100 100 100 99 100 98 86 84 80 73 69 71 82 91 98 100
99 100 100 98 80 58 56 58 60 60 67 78 84 97 99 99 99 99 97 89 88 99 100 100 100 99 99 96 85 91 81 75 72 62 80 95 94 100
100 100 100 91 73 61 61 60 62 64 69 80 95 100 100 98 98 98 93 95 96 92 99 99 100 100 99 92 95 91 83 73 60 52 73 86 97 100
100 95 96 88 71 64 64 62 62 64 66 71 77 94 94 99 100 98 94 97 100 99 99 99 98 100 95 98 97 89 74 49 30 29 53 81 88 100
87 85 82 73 70 66 65 63 63 63 63 67 68 70 87 98 99 99 100 100 100 100 100 100 100 97 95 90 89 72 34 16 13 13 23 63 81 86
82 81 79 75 76 69 70 67 65 66 66 67 69 80 98 98 98 100 100 100 100 100 99 99 97 99 81 67 64 31 15 13 12 11 12 26 58 77
88 85 81 79 78 76 74 72 71 68 64 67 79 98 100 100 100 100 98 100 99 97 97 98 98 85 53 26 19 16 15 16 16 14 11 12 15 39
94 89 89 87 84 80 77 77 73 68 69 75 92 97 98 97 97 96 98 98 94 97 99 100 86 64 42 25 17 19 19 20 23 22 19 14 11 12
99 99 92 89 89 87 84 80 75 83 82 98 99 99 95 97 99 99 99 98 98 100 78 77 65 58 29 18 17 22 25 23 25 29 28 31 31 29
100 99 99 99 96 93 91 86 88 100 100 100 100 94 89 91 65 37 61 65 70 62 78 67 31 29 25 15 25 20 25 28 28 32 35 35 35 37
99 100 100 100 100 100 100 100 100 99 99 100 99 80 72 50 24 22 31 45 53 62 63 56 35 18 18 19 18 22 26 27 29 31 33 34 35 34
100 100 100 100 100 100 100 100 99 100 99 100 99 80 55 29 21 21 21 26 41 40 36 27 19 15 19 19 20 23 26 26 28 31 34 34 34 34
99 99 100 100 99 99 99 100 99 99 99 99 99 99 56 28 24 23 22 22 24 18 14 15 13 14 17 19 27 27 27 28 30 29 31 30 30 29
99 98 100 99 99 99 99 99 99 100 99 99 100 88 49 32 28 26 24 22 18 15 13 13 13 17 20 24 22 24 26 26 29 31 31 30 28 27
99 100 99 99 99 99 99 100 98 99 99 98 99 76 47 38 36 32 29 26 22 19 17 18 25 22 22 24 26 30 24 25 27 28 26 23 22 22
100 100 100 100 99 98 99 99 99 99 98 98 97 83 59 44 42 38 31 28 22 19 20 26 25 22 23 25 24 24 26 25 23 22 21 21 24 29
98 99 99 100 100 99 98 99 98 99 98 98 97 96 89 64 48 39 29 27 25 21 18 26 27 29 29 30 34 30 35 40 33 24 22 23 27 38
100 99 100 99 100 98 98 99 99 99 99 98 98 97 81 72 59 38 30 28 24 21 19 26 35 36 34 35 34 35 47 46 33 29 26 25 27 41
100 100 99 100 100 100 98 99 98 99 99 99 98 98 90 63 77 48 35 34 28 25 24 33 40 47 53 39 57 42 54 54 41 36 34 33 35 44

GFSNE_850_rhum_090.txt.gz
RH
80 90 88 89 100 97 95 100 100 91 92 98 87 80 85 84 88 92 97 95 85 82 89 90 92 98 98 93 99 98 92 84 75 73 67 64 64 61
91 90 98 92 98 94 98 100 99 98 92 91 86 75 67 71 77 88 91 91 89 90 88 87 86 89 89 92 96 93 90 80 75 72 67 68 74 63
100 99 100 100 98 98 99 100 100 100 94 88 67 66 70 80 90 94 93 92 93 85 92 89 89 89 92 100 100 97 88 80 77 71 66 73 74 56
100 100 100 99 98 99 100 99 98 91 78 75 69 78 79 88 97 100 94 91 95 95 98 94 97 100 100 100 100 98 86 78 80 72 71 74 80 96
100 99 100 96 100 99 98 99 83 64 66 71 73 78 86 92 93 94 97 98 95 100 100 93 94 99 99 99 99 98 88 83 81 72 69 74 83 95
98 99 98 99 100 100 100 100 69 63 67 71 76 80 77 79 86 97 97 98 99 99 99 91 91 98 99 98 98 96 88 86 82 74 68 70 84 99
100 99 100 99 100 99 99 76 66 68 70 71 72 72 74 75 87 94 99 96 100 99 99 98 100 100 99 98 99 93 89 91 81 70 57 64 83 98
100 100 100 100 100 98 86 75 75 73 69 68 68 65 62 68 85 99 98 100 100 90 90 94 98 99 99 99 97 93 95 86 74 60 43 61 84 91
91 94 98 98 99 96 93 87 77 76 77 77 65 67 69 67 76 92 98 97 100 93 95 94 98 100 100 98 94 88 88 73 43 18 15 41 81 87
92 92 92 88 87 86 79 81 83 82 74 75 75 67 80 73 80 90 99 100 100 99 99 99 99 99 98 97 88 78 74 32 13 12 12 14 59 81
100 98 94 91 89 88 86 82 78 77 79 81 75 75 77 83 93 99 99 100 98 98 98 100 99 96 99 94 42 30 16 14 15 14 10 12 25 58
99 99 99 97 92 94 91 87 83 84 83 76 76 77 77 89 100 100 100 99 98 99 97 99 97 99 90 57 36 20 17 14 17 18 16 11 12 16
96 99 100 100 99 97 94 93 89 85 86 86 87 87 97 99 100 100 98 94 96 95 92 97 98 98 71 17 25 19 19 19 18 22 26 27 22 17
100 98 98 99 100 100 100 97 100 96 98 92 96 100 99 98 99 100 100 100 100 100 99 99 59 80 72 48 19 17 19 20 20 30 32 36 36 33
100 100 99 99 100 100 100 100 100 100 100 99 99 98 100 100 99 99 100 100 94 100 99 74 70 28 30 42 16 22 16 17 24 28 30 32 35 34
93 99 100 100 100 100 100 100 100 100 98 99 99 99 100 99 99 82 51 51 68 68 66 68 71 56 20 19 17 16 20 25 24 26 29 32 34 35
99 99 99 99 99 99 99 100 100 100 99 100 100 99 100 100 93 56 35 43 52 54 54 60 64 46 18 21 20 19 22 25 25 27 29 32 33 35
100 100 98 100 98 99 99 99 100 99 99 99 100 99 99 100 93 48 37 38 37 37 44 41 36 27 17 21 21 24 26 28 27 27 27 28 29 30
98 100 99 91 100 100 98 99 98 99 99 99 99 99 99 98 100 58 36 33 32 34 29 24 22 19 15 21 23 22 23 24 27 28 28 28 29 29
100 100 98 95 91 100 100 99 98 99 98 99 99 99 99 98 97 59 44 34 34 32 28 23 19 16 17 21 24 25 29 28 25 26 27 26 25 22
100 99 100 87 94 96 99 100 98 99 99 99 99 99 100 98 96 65 46 42 41 42 33 24 17 25 28 29 32 25 25 27 28 26 23 22 22 22
96 94 99 96 92 97 100 99 99 99 98 98 99 100 99 98 97 72 45 44 47 44 34 25 26 36 32 29 33 33 30 35 45 47 44 29 24 24
90 96 92 98 98 94 99 99 98 99 99 100 98 98 98 97 97 97 88 42 52 45 38 30 30 38 35 34 34 36 35 44 49 49 39 31 28 27

GFSNE_850_rhum_093.txt.gz
RH
86 92 94 92 94 93 93 100 100 99 100 99 100 100 99 97 97 99 77 77 88 88 81 83 91 94 100 96 91 92 88 92 86 83 72 68 65 62
92 95 94 97 97 97 100 99 98 99 100 99 99 91 94 92 100 100 88 91 94 89 88 91 89 89 89 90 96 86 94 91 88 78 71 68 63 57
100 100 100 100 100 99 98 100 94 99 100 98 100 97 93 91 94 95 91 92 96 94 92 92 85 87 90 87 89 92 97 95 88 74 71 70 63 57
98 99 99 98 98 100 99 99 100 98 100 100 99 89 84 80 82 89 95 98 96 94 93 96 89 88 90 93 94 98 98 94 85 77 73 72 62 61
99 98 95 99 100 99 99 97 100 94 100 100 99 81 71 74 75 84 94 97 94 88 96 97 99 88 95 99 100 98 98 96 87 79 76 70 62 65
98 93 100 100 100 100 100 100 100 100 100 86 83 76 69 67 74 84 83 83 88 93 99 100 99 83 83 89 91 99 97 94 88 81 80 69 62 69
99 99 99 98 100 100 100 99 100 100 99 84 79 76 73 69 69 68 75 84 88 98 94 99 100 89 92 97 98 98 98 92 85 85 77 68 52 78
86 92 100 100 100 99 100 100 100 100 87 78 76 80 73 68 74 74 78 82 85 79 91 93 99 99 100 100 100 99 98 87 86 82 73 60 45 82
91 87 92 99 100 100 100 100 100 98 95 83 79 77 72 66 79 76 74 75 84 91 87 90 99 95 100 100 100 99 88 87 83 75 46 30 40 79
99 99 94 89 93 94 100 100 100 100 96 91 90 82 86 90 98 86 74 83 94 98 99 100 96 96 100 100 99 92 90 77 77 34 15 13 24 74
86 98 99 100 95 94 93 99 96 97 100 97 100 100 94 87 95 83 79 99 100 98 100 100 100 100 100 100 93 94 81 63 42 15 13 12 12 52
88 81 96 99 100 100 99 95 93 89 90 87 90 90 87 88 89 82 86 98 96 100 100 100 100 100 98 95 97 95 42 21 17 16 16 11 12 21
92 98 98 90 100 100 100 100 96 92 91 92 95 94 94 94 86 92 98 99 99 99 98 99 98 99 98 74 55 68 33 21 19 20 22 17 12 13
91 94 98 99 94 100 100 100 100 100 100 100 99 93 88 87 96 100 98 100 100 100 100 100 96 97 99 100 40 29 30 24 26 26 27 28 22 14
92 100 100 99 95 99 100 100 100 100 100 100 99 97 90 95 100 100 99 99 99 99 99 99 98 100 75 90 82 40 23 22 26 33 32 33 35 25
72 81 100 100 100 100 100 100 100 100 100 99 100 100 100 100 99 99 99 100 99 100 100 99 100 98 71 40 49 32 27 26 25 30 33 34 34 33
100 100 100 88 86 99 100 100 100 100 100 100 100 99 100 100 100 100 100 100 100 99 99 94 92 79 91 46 24 26 22 26 29 28 34 34 32 34
100 100 99 99 99 94 99 99 99 99 99 99 100 99 99 99 99 99 99 97 65 48 59 81 65 68 84 61 23 22 24 28 31 29 34 36 34 34
99 100 100 100 99 99 100 97 98 100 99 99 99 99 99 99 99 99 98 92 49 46 62 76 64 66 76 63 20 24 26 27 31 31 29 29 30 30
100 100 99 100 94 99 98 99 99 98 99 99 99 99 99 99 99 98 98 98 55 46 41 49 50 42 40 33 20 23 22 31 31 29 29 31 32 31
90 91 92 91 100 100 100 90 87 98 98 98 100 98 99 99 99 100 98 98 68 48 39 31 27 25 26 26 28 26 27 29 31 30 28 31 32 29
91 81 82 91 98 96 91 86 92 95 98 98 98 100 99 100 100 98 98 97 62 44 44 37 35 27 25 26 28 34 28 27 31 29 27 29 27 25
85 89 90 92 90 91 91 96 96 95 98 98 98 99 98 98 97 98 98 98 87 52 44 35 41 33 34 31 33 37 35 28 31 34 46 46 38 31

GFSNE_850_rhum_096.txt.gz
RH
99 99 97 97 88 84 96 98 100 100 98 96 100 97 100 100 96 100 100 97 92 86 82 77 78 83 85 96 94 86 89 91 85 88 80 77 69 66
98 99 97 92 77 96 100 100 98 100 100 99 98 99 99 100 100 100 100 95 97 95 88 82 84 86 85 87 94 90 93 89 87 91 84 69 67 66
99 99 98 97 98 99 99 100 98 100 100 98 98 100 99 100 100 98 91 92 97 92 85 84 88 90 90 82 83 90 89 89 94 94 87 70 70 68
100 99 99 100 96 100 100 98 100 99 100 100 99 98 98 97 100 98 93 98 100 97 93 91 92 91 89 78 91 89 92 96 98 92 80 75 71 69
85 92 98 100 99 98 98 98 100 100 100 100 100 98 99 100 99 100 100 100 99 100 96 93 94 95 92 92 96 93 97 99 89 79 81 75 72 70
73 94 100 100 99 98 99 99 100 100 100 100 100 99 100 100 94 92 90 100 100 99 96 93 91 99 98 91 87 93 99 97 94 88 81 78 76 66
77 85 96 98 100 98 99 99 99 100 98 100 100 97 96 97 90 97 97 100 98 96 90 90 99 100 100 96 85 96 97 92 93 90 83 79 73 59
69 78 92 96 99 98 100 100 100 100 100 100 100 99 84 78 84 88 84 86 94 83 90 89 96 97 99 100 100 100 99 99 98 84 82 77 68 49
18 51 74 89 99 98 93 98 100 99 100 99 100 94 80 74 83 91 83 81 75 78 79 82 97 100 100 100 100 99 100 100 90 85 79 72 51 42
18 30 38 82 93 99 100 99 100 99 100 99 100 98 98 93 92 88 89 89 90 91 94 94 94 97 100 100 99 99 99 98 90 83 75 41 23 35
18 19 29 67 89 98 98 99 99 100 99 100 100 100 100 95 97 90 91 90 89 92 94 100 99 100 100 100 100 100 100 90 92 68 56 18 12 26
28 30 36 52 92 91 100 100 99 98 100 100 99 100 100 100 100 99 94 92 90 97 90 100 99 100 100 99 99 96 94 97 73 43 18 11 10 14
43 35 27 64 99 100 100 100 99 100 100 100 100 100 100 98 99 98 96 88 84 93 94 99 98 100 100 83 78 89 95 95 34 18 13 12 10 12
49 43 58 33 70 99 100 99 100 100 100 100 100 100 100 100 97 96 93 95 96 98 99 100 99 91 94 92 95 91 54 71 29 20 17 17 10 12
88 100 99 83 83 93 95 100 100 100 100 100 100 100 99 100 98 100 100 100 99 99 100 99 100 95 94 98 95 99 29 43 27 20 26 24 22 16
92 92 96 100 98 80 78 91 98 100 99 100 100 100 100 100 100 100 100 100 100 100 99 99 100 98 98 99 84 92 85 29 25 22 33 31 29 26
95 95 100 100 100 99 100 100 99 99 100 100 99 99 100 100 100 100 100 100 100 99 99 100 100 99 98 99 78 56 59 26 26 23 29 31 31 34
91 90 96 100 99 100 100 100 96 98 99 99 100 100 100 99 99 100 100 100 100 99 99 100 99 100 100 96 89 30 39 24 24 29 29 35 33 34
96 94 94 95 100 98 94 99 99 100 98 98 98 100 100 100 100 99 99 99 99 99 98 100 100 100 100 92 82 72 21 19 25 31 29 32 32 37
100 100 99 99 100 99 98 94 99 98 100 98 98 98 99 99 99 99 99 99 98 99 98 78 87 83 80 65 80 44 18 21 20 28 29 31 40 40
97 92 90 89 91 99 100 98 98 98 100 100 98 98 98 98 98 100 99 99 98 98 97 53 40 69 88 90 78 45 22 22 27 28 30 33 35 35
88 89 92 92 94 94 96 95 96 100 96 100 97 98 97 98 99 99 99 99 97 95 97 71 46 48 50 50 47 28 20 29 30 34 32 39 38 36
99 92 91 94 92 94 91 91 93 91 95 98 100 95 98 97 98 98 99 98 98 98 98 74 55 44 35 28 31 26 29 29 32 34 34 31 35 33

GFSNE_850_rhum_099.txt.gz
RH
91 87 88 89 91 92 96 99 96 100 98 77 72 86 80 79 90 97 100 100 95 92 89 84 83 83 81 82 96 96 80 83 81 85 78 81 78 70
88 90 95 93 89 95 99 87 95 99 100 97 95 86 77 77 95 100 100 100 99 96 90 85 92 82 83 76 84 86 80 78 86 85 82 86 80 69
100 100 100 99 96 99 99 100 99 100 100 97 100 93 85 87 93 100 100 100 100 96 89 88 89 88 87 89 90 86 79 87 86 88 85 87 83 71
91 100 100 100 100 100 100 100 100 100 100 99 97 94 94 87 92 100 100 100 99 95 94 95 98 92 95 95 92 84 75 94 93 89 92 86 77 71
66 69 82 81 88 97 91 93 97 100 100 100 100 96 99 100 100 99 100 100 100 100 99 100 100 99 97 96 94 86 96 89 96 98 93 81 79 72
57 64 72 89 97 98 100 100 99 97 99 100 99 100 100 100 100 99 98 99 100 100 99 99 100 100 100 98 99 97 94 99 100 99 94 88 80 74
14 32 64 79 92 95 99 100 95 99 98 100 100 100 100 100 98 98 100 100 100 100 99 99 100 99 94 100 100 98 96 99 100 94 85 87 78 75
19 18 15 15 60 91 99 100 100 100 100 100 98 98 95 100 100 100 99 100 99 99 100 100 100 96 98 99 99 100 100 100 99 90 91 82 78 70
20 19 19 18 17 18 58 96 99 100 100 100 100 98 99 98 99 99 99 95 85 89 96 98 98 92 97 94 98 98 98 98 99 99 87 81 72 62
21 21 20 18 21 38 46 34 82 93 99 100 100 100 98 99 100 99 91 90 93 100 99 86 85 83 83 98 99 99 98 99 100 98 86 79 65 41
17 18 23 23 23 26 93 99 80 71 92 100 100 100 100 100 100 99 99 100 100 99 100 97 95 88 96 100 100 100 100 100 97 88 86 70 41 22
15 15 16 23 28 45 78 97 99 99 86 86 99 100 100 100 100 98 90 95 98 98 93 97 94 97 100 99 100 99 100 100 98 89 84 59 21 14
40 23 20 19 24 27 44 83 93 98 100 99 96 98 100 99 100 100 98 96 89 94 88 95 95 100 99 92 100 100 99 99 93 94 50 25 12 12
53 42 37 32 36 72 83 94 99 99 98 100 100 98 100 100 98 100 100 98 100 100 100 98 90 90 98 98 85 92 97 97 97 90 23 15 13 12
85 92 99 93 69 65 64 61 92 88 98 99 98 100 98 100 100 100 100 100 100 100 100 100 96 96 93 98 97 90 97 79 82 68 22 19 16 13
85 88 89 99 100 98 97 88 100 100 99 100 98 99 100 100 100 100 100 100 100 99 100 100 100 99 98 99 94 96 94 57 57 44 26 25 22 20
96 98 91 84 92 98 100 100 100 100 100 100 99 99 100 100 99 100 99 100 100 99 100 100 100 100 100 96 97 98 86 86 43 34 26 30 29 26
95 93 93 92 91 95 94 92 90 99 97 96 98 99 99 100 100 100 100 100 100 100 100 100 100 100 100 100 99 99 74 77 45 27 26 31 30 33
96 96 95 95 98 94 99 94 95 89 97 96 98 98 99 99 100 99 99 100 100 100 99 100 99 99 99 99 99 99 62 46 33 31 29 27 29 31
89 92 90 92 90 93 96 93 92 89 86 96 96 97 98 98 99 99 99 99 99 99 99 100 100 98 98 98 98 79 83 32 32 29 27 31 35 34
94 93 92 92 92 96 97 94 95 94 92 95 96 98 97 99 98 98 99 100 99 99 99 98 90 98 99 100 92 81 76 65 29 25 30 33 34 34
96 96 94 92 92 95 91 92 93 90 89 96 99 100 99 96 98 98 98 98 98 99 99 98 98 98 95 83 86 87 72 32 30 32 43 35 28 31
96 96 97 95 91 90 96 89 87 91 87 95 98 99 99 96 97 97 97 98 98 98 98 98 98 86 91 93 88 79 49 32 33 37 47 48 40 33

GFSNE_850_rhum_102.txt.gz
RH
99 99 92 89 83 79 81 90 100 99 92 78 76 77 80 79 88 85 77 80 76 93 98 97 97 93 94 95 95 100 100 98 83 82 79 77 78 76
100 100 97 93 94 92 89 93 96 98 100 93 93 79 73 88 96 92 86 82 94 100 100 99 98 88 93 90 94 100 100 98 86 76 78 86 79 79
97 97 100 100 100 99 96 99 97 98 100 88 88 88 97 100 98 97 90 95 98 100 100 100 92 92 88 87 96 91 91 94 84 83 91 90 84 85
76 84 90 98 100 100 95 100 100 100 100 100 99 100 88 95 99 98 96 96 99 100 100 98 97 93 88 96 93 88 90 86 85 81 93 90 86 89
48 55 59 63 68 75 92 100 100 99 98 97 96 95 97 98 100 97 99 99 100 100 100 100 94 91 97 99 93 93 92 90 77 97 90 93 94 85
16 14 17 33 58 72 84 89 95 98 99 100 100 100 100 98 95 100 100 99 99 99 100 98 98 100 100 98 97 96 94 90 98 96 94 99 95 86
21 20 20 18 15 16 44 76 91 94 98 100 100 98 99 100 98 87 100 100 100 100 98 100 99 100 100 100 98 98 96 92 100 100 100 97 89 81
13 15 17 19 20 19 18 24 66 92 94 100 100 100 99 98 100 99 100 100 100 99 100 100 98 98 99 98 98 98 91 100 100 99 99 95 86 81
14 13 12 13 15 20 20 22 23 43 96 96 95 98 100 98 100 100 100 100 97 96 100 100 100 97 98 99 100 99 98 99 98 100 97 90 85 78
16 17 30 28 24 22 31 52 35 28 45 96 100 98 96 98 100 100 99 99 100 100 100 100 100 98 98 100 100 100 99 98 99 99 100 94 82 78
40 40 38 18 31 21 27 80 86 87 41 57 94 100 99 90 100 100 100 100 100 100 99 100 100 99 100 100 97 94 97 98 98 100 100 92 83 72
69 72 76 47 19 18 40 85 86 87 92 57 41 88 100 100 97 98 100 100 100 100 99 100 100 97 100 98 94 94 98 99 98 99 100 88 83 60
74 74 79 74 37 40 85 94 93 95 94 90 54 51 94 98 100 98 97 100 100 99 95 100 99 95 90 92 91 94 98 100 98 99 100 90 73 41
87 82 83 81 60 95 95 95 97 96 90 79 50 56 64 97 99 100 91 100 100 100 98 97 92 88 92 96 89 94 99 100 100 100 94 90 48 25
94 94 99 94 92 86 95 100 98 97 100 100 100 99 99 77 96 100 100 100 100 100 100 100 97 89 93 92 91 88 99 100 100 99 93 84 19 14
98 95 98 99 98 98 96 97 100 100 99 97 95 99 99 94 78 99 100 100 100 100 100 100 100 100 100 100 100 94 85 98 97 98 94 65 22 16
98 94 90 93 94 93 95 98 100 100 97 92 93 96 96 96 95 98 100 100 100 99 100 100 100 100 100 99 100 100 89 91 90 74 85 48 28 27
95 91 94 96 94 94 94 95 97 98 100 96 95 95 99 100 98 99 99 100 100 99 99 100 99 100 99 99 100 99 96 98 90 45 75 38 35 36
98 95 95 97 95 92 91 93 98 99 95 93 88 97 98 100 98 96 98 99 99 99 100 100 100 99 99 99 99 99 95 99 85 66 55 43 36 33
95 95 95 94 94 94 91 95 92 95 99 98 95 99 100 99 96 96 97 98 99 99 99 99 99 99 99 96 96 98 97 97 72 65 44 54 42 39
100 100 100 95 97 97 94 92 90 90 93 95 94 100 99 98 99 93 96 98 98 98 99 99 98 99 100 100 99 100 100 96 47 50 34 40 44 51
100 99 99 95 97 98 97 94 91 93 94 98 95 89 84 95 98 97 97 97 98 98 98 99 99 98 100 100 98 97 96 86 52 46 49 37 33 43
97 98 92 92 92 95 97 100 96 87 85 89 82 95 100 100 100 98 92 96 97 97 98 98 99 99 99 100 96 97 86 80 76 45 54 59 46 45

GFSNE_850_rhum_105.txt.gz
RH
100 100 100 100 100 100 99 100 100 99 95 78 76 70 76 82 73 71 72 68 68 83 82 92 89 90 97 100 100 99 99 99 100 99 89 77 82 74
100 100 100 100 100 99 96 99 99 99 100 88 83 90 89 90 82 81 71 81 79 79 88 94 90 91 98 100 100 100 100 100 100 97 82 72 79 76
86 94 97 97 100 100 100 100 99 100 99 86 97 91 93 92 88 90 95 91 99 99 98 91 87 97 99 100 100 97 100 99 99 94 87 78 80 79
24 31 47 66 80 87 92 100 100 95 100 100 97 100 95 99 100 91 96 92 95 89 84 88 87 99 100 100 95 95 99 100 94 92 88 82 80 82
21 19 16 15 25 41 59 76 81 90 100 100 100 95 95 96 99 99 96 92 91 88 94 98 96 100 100 100 94 95 96 96 85 88 82 74 78 86
17 20 21 21 20 17 15 17 40 60 72 88 98 100 100 100 100 99 98 98 96 97 100 100 100 100 97 92 94 88 89 90 90 88 84 72 82 81
10 9 10 12 16 20 21 21 22 30 69 80 85 88 89 98 100 100 98 99 100 100 100 99 99 99 100 99 93 96 93 93 93 90 86 78 87 85
17 19 18 13 15 12 17 21 23 27 34 85 100 99 99 98 99 96 100 99 100 98 100 100 100 100 99 96 92 94 96 98 97 92 75 93 77 88
14 10 10 19 32 50 47 26 27 38 38 49 97 98 98 100 99 100 98 100 99 99 100 100 100 100 100 100 100 97 98 99 98 88 62 79 83 88
46 50 62 54 37 30 18 16 18 26 44 65 67 89 99 98 100 100 100 98 100 98 100 100 99 100 100 99 100 98 99 100 94 80 62 83 84 83
56 63 65 74 83 87 43 27 20 17 30 74 87 91 63 55 96 100 99 100 99 98 97 100 99 100 100 100 100 100 100 99 90 81 94 94 75 86
66 67 68 75 88 95 88 89 93 84 81 46 29 31 27 30 37 73 99 100 100 100 99 100 99 100 100 100 99 100 100 100 97 86 89 97 100 87
79 72 75 78 86 95 94 94 93 91 89 82 42 20 18 25 23 27 91 100 100 100 99 100 100 100 100 99 99 100 100 100 96 92 97 97 98 90
95 89 86 90 96 98 94 94 95 97 97 72 78 89 88 74 83 94 74 92 100 100 100 100 99 100 99 99 100 100 100 99 86 94 97 97 99 88
90 94 99 94 96 95 94 96 96 97 99 99 99 100 99 100 98 87 98 92 89 99 100 100 99 100 100 100 95 96 98 96 98 100 100 100 96 89
92 84 93 95 94 92 92 83 84 97 100 100 99 95 97 96 100 99 100 100 100 88 98 99 99 100 100 100 100 99 100 96 98 100 99 100 98 92
98 93 88 82 83 82 85 86 87 88 92 93 94 94 100 91 95 100 100 99 100 97 92 99 99 100 99 100 100 100 100 100 100 99 99 100 96 76
94 95 93 94 95 95 95 95 92 95 93 93 92 95 94 94 99 100 100 100 100 100 96 99 99 99 99 100 100 100 100 100 100 100 100 99 96 65
94 87 87 86 86 94 94 90 84 80 84 91 94 95 95 95 98 100 100 100 100 100 99 99 99 99 99 99 99 100 99 99 99 99 92 93 92 49
87 84 85 85 88 90 92 94 94 94 95 86 94 95 96 93 99 99 99 99 99 100 98 99 98 98 99 96 96 99 99 99 98 98 83 92 75 41
91 91 92 92 91 90 93 94 96 93 96 94 92 93 96 98 98 98 100 99 99 100 91 96 98 98 99 99 100 98 98 98 99 98 79 91 58 44
92 96 92 93 90 91 95 96 96 95 94 94 91 88 85 99 100 97 99 100 98 100 94 97 98 98 99 99 99 96 97 96 96 88 83 57 46 39
93 95 94 89 84 92 96 94 95 95 93 93 88 89 89 95 92 98 100 98 99 96 95 96 98 97 97 98 98 98 98 97 92 68 73 68 54 36

GFSNE_850_rhum_108.txt.gz
RH
98 100 100 100 100 100 100 100 100 100 99 98 96 91 87 89 84 76 78 83 77 68 68 69 68 74 84 83 88 95 100 100 100 98 95 94 76 71
90 85 95 99 100 99 99 100 100 100 100 96 85 84 85 85 82 86 78 83 88 80 74 66 65 72 72 71 83 95 100 100 100 99 99 99 75 62
60 74 52 60 85 83 90 95 99 100 100 94 91 90 90 94 95 87 88 89 89 83 83 83 80 79 87 86 91 94 100 100 99 98 96 96 74 61
36 32 32 25 24 54 54 69 82 90 98 99 100 100 99 99 96 100 100 97 100 96 92 97 89 95 95 94 95 98 100 100 100 98 95 88 70 64
14 17 20 22 22 22 19 19 26 40 72 82 88 97 100 100 99 100 100 100 100 100 98 96 93 93 91 93 96 100 100 100 96 85 96 81 69 64
14 19 19 19 15 12 14 20 21 21 24 36 58 80 80 88 99 99 98 99 98 98 97 94 94 94 93 89 92 99 100 99 100 96 90 80 74 70
11 15 16 15 18 19 28 26 20 20 22 26 30 49 82 91 96 92 92 92 95 89 83 88 99 98 89 96 100 100 97 95 97 93 83 82 79 76
11 12 19 20 36 36 30 26 32 45 45 46 46 76 78 96 100 99 100 98 96 78 79 84 95 99 100 99 98 100 100 100 97 86 85 84 78 69
16 15 15 19 35 58 66 38 21 18 23 56 73 74 85 90 97 99 99 100 100 99 98 95 94 98 99 100 100 100 100 100 94 92 91 88 84 67
33 45 61 57 50 54 52 32 24 19 29 48 82 88 87 62 77 92 95 99 99 98 100 100 97 98 98 100 100 100 100 99 98 97 98 97 86 67
48 66 67 68 71 80 93 79 36 16 29 52 61 66 78 70 43 43 40 67 82 90 98 100 98 99 99 96 99 100 100 100 100 100 99 98 84 68
82 70 60 70 87 87 92 98 94 88 71 39 32 33 34 26 21 37 90 95 99 100 91 97 100 99 100 98 97 99 100 100 100 100 100 99 83 65
98 92 89 96 93 94 96 96 97 94 95 97 92 62 35 42 51 53 48 94 99 98 99 100 98 99 100 99 98 100 99 100 100 100 100 100 85 66
94 90 84 93 99 97 98 98 97 95 97 98 99 96 83 94 81 98 100 92 95 100 98 100 100 100 100 100 100 99 100 100 100 100 100 100 96 83
95 94 95 93 94 91 83 94 98 94 85 93 99 100 99 96 98 100 98 94 72 55 93 99 100 99 99 99 99 98 100 99 98 100 100 100 93 81
86 87 92 89 82 74 80 79 83 88 93 98 95 84 90 88 100 100 90 100 99 100 99 100 99 100 100 100 99 99 99 99 99 99 100 100 99 95
99 91 87 92 87 81 81 84 86 95 96 95 94 89 83 86 87 90 98 99 99 99 98 100 100 100 100 100 100 100 100 100 100 99 100 100 100 100
96 98 93 83 85 84 83 83 84 87 88 90 88 83 83 87 89 91 99 95 99 99 96 100 100 100 97 100 100 100 99 99 100 100 100 100 100 100
95 87 94 94 85 86 85 86 88 90 94 98 97 93 84 88 90 89 94 97 96 100 99 99 99 99 99 99 96 100 100 100 99 100 100 100 100 100
92 93 92 91 92 92 92 93 92 94 94 96 96 94 94 93 89 90 94 98 98 98 98 100 97 100 100 99 97 96 98 100 100 100 99 99 100 100
91 89 90 91 92 91 96 94 93 96 96 97 97 98 95 96 88 88 94 96 96 98 100 99 94 98 98 98 99 98 98 98 99 99 98 98 98 97
90 89 88 90 88 87 81 77 85 96 93 92 96 97 96 93 94 97 99 97 98 98 100 99 96 97 98 98 98 98 97 98 99 98 99 94 94 94
93 94 93 93 93 92 92 94 92 95 81 85 95 97 97 95 91 88 84 93 98 98 99 96 97 97 97 98 98 98 97 97 97 97 97 97 98 90

GFSNE_850_rhum_111.txt.gz
RH
58 84 96 90 95 100 97 100 100 100 98 97 100 100 100 99 97 96 90 92 93 92 83 74 78 83 84 72 76 81 86 82 96 84 95 89 90 80
43 49 62 89 91 97 92 96 98 98 100 100 97 98 96 99 98 99 100 97 94 92 86 82 73 81 82 75 70 88 76 75 86 88 96 98 96 87
23 42 56 59 61 60 73 78 87 94 99 89 98 100 100 99 94 90 94 93 92 90 90 90 90 90 87 80 82 83 75 69 75 88 99 100 100 93
14 16 19 20 27 31 33 34 45 63 86 94 85 76 96 100 100 100 100 100 100 93 96 98 100 99 98 97 91 86 82 81 91 92 99 99 97 95
12 16 28 35 29 23 20 23 24 28 39 65 75 66 78 86 89 98 100 100 100 100 100 100 100 99 97 99 99 93 91 94 95 98 98 100 96 99
12 12 15 24 24 28 39 34 30 31 31 31 32 39 70 77 82 80 80 96 98 100 99 100 100 97 90 89 89 88 84 88 96 98 99 100 100 99
13 14 19 24 24 37 54 52 51 39 35 42 41 40 50 63 90 99 97 89 80 91 95 96 90 84 86 98 90 83 78 84 90 100 100 100 99 98
21 18 18 24 46 58 63 64 61 54 39 44 79 76 51 61 82 84 94 99 98 92 89 84 86 78 86 89 84 76 86 88 100 100 100 99 100 94
33 27 27 37 56 64 67 69 69 62 37 53 85 89 91 93 79 58 70 88 93 97 100 97 99 90 89 89 91 91 97 99 100 100 100 100 100 92
55 50 45 42 50 67 81 84 86 74 65 48 63 76 84 92 98 93 79 67 55 49 81 98 96 97 96 90 97 100 100 100 100 100 100 100 98 92
76 71 69 59 51 82 95 92 87 79 71 71 75 76 63 64 65 61 40 53 91 60 43 99 97 88 89 97 99 97 100 100 100 100 100 100 100 97
96 96 88 96 94 92 95 98 96 86 81 75 72 76 80 69 54 56 63 85 100 98 80 100 97 97 96 77 89 99 99 100 100 100 100 100 100 100
96 88 82 82 99 98 97 94 90 97 97 92 87 94 94 86 73 73 97 100 100 99 89 97 99 100 100 92 86 98 98 95 99 100 100 100 100 98
94 92 89 94 96 94 96 95 94 93 94 95 95 79 76 82 68 58 89 100 100 100 99 94 98 95 98 100 96 92 99 99 100 100 100 100 100 100
88 91 99 98 97 89 79 97 96 85 88 88 84 79 84 93 78 80 83 99 96 88 79 72 88 81 94 98 100 98 100 98 98 99 100 100 99 98
92 96 98 99 94 77 70 72 73 77 92 96 97 97 93 95 86 80 86 85 87 62 85 100 99 100 100 98 99 98 100 100 99 98 99 100 100 100
98 94 93 89 81 87 84 76 78 83 83 83 88 95 93 89 86 86 88 90 91 90 92 98 100 99 100 100 98 100 98 100 99 99 100 100 100 99
96 88 76 82 89 89 85 83 86 86 85 94 93 90 93 98 86 85 90 96 92 88 90 98 99 94 98 98 100 99 98 100 99 100 98 100 100 100
78 80 84 87 91 95 96 98 92 87 89 92 97 95 96 91 95 98 89 92 92 96 95 95 100 99 99 100 98 100 100 97 99 100 99 100 98 98
81 85 87 86 87 86 89 93 93 92 86 94 96 97 96 97 98 90 89 95 95 94 97 97 96 98 99 98 100 96 98 100 99 99 100 100 100 100
86 89 89 89 90 92 94 92 89 80 80 99 95 91 95 98 91 92 98 97 99 93 94 96 100 97 97 98 98 98 95 92 100 100 99 100 100 98
93 95 94 94 93 94 93 95 96 100 98 97 88 81 93 97 96 94 92 92 87 90 96 94 92 97 98 98 98 99 100 99 100 99 99 99 97 98
97 98 96 95 96 96 98 98 97 94 87 82 80 74 96 92 97 86 89 90 94 88 95 96 96 97 98 97 98 99 98 99 98 98 98 99 98 97

GFSNE_850_rhum_117.txt.gz
RH
9 11 15 19 25 30 32 46 98 100 100 82 94 76 82 92 95 100 100 100 100 100 96 98 100 100 95 98 92 91 82 83 90 99 100 100 97 99
11 11 14 17 21 23 23 24 43 78 100 68 50 56 64 86 92 91 98 99 100 100 100 100 100 99 94 99 99 95 87 87 90 83 86 97 99 96
12 10 10 10 13 22 25 31 39 49 89 28 23 16 24 41 76 86 86 92 100 100 98 99 100 100 99 96 94 99 87 92 86 84 85 87 98 100
20 17 14 13 15 17 19 29 46 50 79 59 29 16 14 16 24 54 88 78 84 100 100 100 92 100 100 100 100 96 98 98 94 92 93 97 99 97
25 24 22 18 16 19 26 40 47 60 64 56 36 24 16 14 15 20 39 66 71 82 98 100 100 100 100 100 100 100 99 100 99 99 99 94 96 97
32 30 30 27 26 33 42 47 55 68 69 67 60 41 28 21 27 42 23 24 38 48 89 100 99 100 100 100 100 99 100 100 100 100 95 92 89 88
44 42 37 34 35 35 45 59 75 93 92 94 88 76 59 41 46 48 47 40 21 92 70 87 92 91 98 100 100 100 100 100 100 99 99 93 91 93
45 47 44 45 42 41 39 46 96 94 95 100 100 93 79 70 66 64 68 55 55 22 33 17 21 50 72 86 93 100 100 100 100 100 100 100 100 100
45 47 46 48 51 46 49 70 69 68 80 94 92 86 88 82 89 87 94 83 68 28 36 24 12 12 19 48 78 90 92 99 100 100 100 98 95 97
49 48 49 48 45 58 92 90 78 69 72 74 77 77 82 90 93 96 100 89 75 48 43 72 17 22 16 13 30 66 93 90 94 99 100 96 89 85
46 47 54 53 50 95 96 92 86 77 74 72 75 82 81 94 89 87 88 100 89 66 47 100 93 97 54 35 43 53 87 88 90 97 100 100 100 97
51 60 66 69 90 100 94 94 98 86 84 86 84 82 76 68 70 79 92 92 82 82 86 91 78 85 74 38 73 99 82 79 84 96 100 97 98 100
97 87 78 73 97 100 100 96 95 96 95 93 90 72 64 64 64 71 78 96 92 80 66 99 98 80 98 85 22 58 76 94 92 93 99 100 100 100
100 99 86 96 97 98 95 96 96 94 95 87 73 67 64 67 71 75 89 98 99 85 75 92 100 100 97 89 71 16 14 19 74 92 99 100 99 100
100 96 100 100 99 90 68 81 99 89 86 79 74 78 78 70 70 68 74 100 97 85 71 68 81 80 81 87 87 66 66 12 24 84 99 100 100 100
86 89 97 93 79 68 62 62 67 81 91 96 92 91 84 74 73 78 88 85 92 77 70 71 81 89 96 97 99 87 96 100 63 72 99 100 100 100
99 96 86 75 66 66 66 67 70 73 78 88 93 91 86 82 82 86 94 95 100 92 78 78 76 78 89 93 92 86 88 97 87 38 81 93 100 100
96 90 74 72 75 77 78 79 80 81 81 85 96 91 93 86 87 88 88 98 99 88 88 84 92 86 80 81 88 90 86 94 96 93 65 89 89 99
82 73 78 82 86 88 89 89 87 87 90 90 91 87 83 78 90 94 89 94 96 93 83 88 94 97 97 96 93 96 93 93 93 77 68 69 85 86
78 85 90 91 89 92 93 96 96 94 95 93 92 90 95 100 97 94 86 95 97 90 92 94 81 91 97 99 100 96 95 96 100 100 92 79 86 88
84 84 89 92 91 93 93 97 98 97 97 95 93 97 96 97 96 95 86 94 100 98 94 87 81 85 89 95 95 100 100 88 90 100 100 100 98 92
86 92 94 95 95 96 96 98 97 96 96 95 95 96 97 98 92 90 85 86 94 98 95 92 84 84 90 98 96 99 100 96 85 90 100 99 99 100
93 94 94 96 96 96 96 97 97 96 97 96 96 96 97 96 93 87 82 90 95 98 95 91 82 84 96 98 100 100 100 98 88 92 92 94 99 100

GFSNE_850_rhum_120.txt.gz
RH
9 8 8 7 8 8 9 16 32 98 86 26 70 21 19 15 14 24 81 82 87 97 100 100 99 99 100 100 96 96 97 97 97 87 96 95 91 95
14 13 12 11 12 15 20 24 37 82 99 44 32 35 18 14 12 12 24 80 79 89 92 100 100 99 99 100 100 98 95 100 96 86 87 90 95 89
18 18 18 15 14 16 18 23 38 72 84 69 34 23 20 19 13 12 14 25 76 76 97 98 94 98 100 100 99 99 99 99 97 96 88 90 93 94
24 25 24 22 20 19 21 28 43 47 76 88 37 34 32 33 27 22 22 19 30 45 84 99 88 99 100 100 100 100 97 97 100 98 90 90 92 94
29 28 27 26 25 24 23 26 32 42 58 87 69 43 42 41 36 35 28 21 14 19 39 71 92 94 100 100 100 100 100 99 98 100 99 98 96 94
32 33 32 30 27 27 29 32 39 52 57 69 82 68 54 45 50 44 30 33 25 20 21 45 66 82 89 97 100 100 99 100 100 99 94 98 98 95
38 40 42 42 46 48 50 46 66 82 71 78 92 100 86 70 71 69 61 51 30 35 27 17 13 13 36 74 87 99 100 100 100 100 100 100 100 100
36 40 46 51 48 46 46 51 98 93 96 98 96 90 79 74 72 85 88 90 99 53 58 29 24 16 14 16 26 84 93 100 100 100 100 100 100 100
42 44 43 44 46 45 44 59 77 79 84 86 82 77 78 86 95 93 98 97 94 80 81 64 30 28 22 15 26 28 64 90 99 100 100 100 100 99
45 46 47 46 52 53 76 85 80 76 78 74 79 80 92 98 96 96 94 90 92 75 75 74 52 84 50 43 96 100 74 56 77 93 98 100 100 100
47 51 62 70 66 97 100 97 92 84 76 77 82 86 84 90 81 73 70 91 93 83 69 100 86 68 42 22 48 100 100 100 84 77 96 94 94 100
54 63 74 82 95 100 100 93 95 88 92 96 87 79 77 71 63 64 84 95 99 100 83 87 80 82 86 35 42 56 73 85 95 99 94 94 95 94
98 86 78 82 96 100 100 94 95 98 96 90 88 82 71 60 60 64 66 79 87 100 77 99 91 77 90 93 46 23 21 17 38 67 93 90 93 95
99 96 91 94 96 96 98 86 94 99 89 77 70 68 70 68 64 61 63 67 83 97 95 96 91 79 81 86 71 35 28 20 19 17 72 98 98 95
100 100 100 100 100 94 78 63 72 62 62 64 66 71 78 77 72 68 66 72 78 88 95 88 86 78 85 90 85 57 54 29 28 19 28 93 100 99
94 96 94 97 83 70 63 62 62 64 68 70 70 75 85 80 79 74 74 82 88 75 76 82 80 84 87 89 87 70 77 82 46 38 67 89 100 100
100 95 88 76 66 66 68 70 72 74 75 76 80 77 79 100 99 79 76 84 95 94 80 73 78 83 96 96 84 68 87 83 66 43 43 56 98 100
97 92 74 72 78 79 79 80 82 85 88 92 93 91 91 97 93 84 86 100 98 92 89 84 85 85 81 77 87 84 85 89 86 82 81 70 61 96
86 74 76 81 85 85 86 91 94 93 95 94 95 96 97 98 96 99 100 98 87 81 86 88 90 93 88 95 74 76 100 96 97 98 93 90 69 56
78 82 85 89 89 90 91 94 96 96 95 95 94 94 95 97 96 96 94 98 93 85 88 90 92 95 99 99 100 68 67 89 91 93 100 100 99 76
80 84 88 89 87 91 93 96 99 97 96 96 95 95 94 98 96 94 94 94 97 93 95 91 90 96 96 94 95 79 70 85 100 100 100 99 99 99
88 89 88 87 90 95 95 96 97 95 95 95 93 95 96 97 96 96 96 92 84 86 88 95 96 96 89 86 90 94 84 74 96 100 100 97 99 98
88 88 88 88 93 96 95 96 96 96 96 95 96 97 97 96 96 98 98 98 99 98 100 99 95 91 82 86 98 95 92 90 100 100 90 86 92 98

GFSNE_850_rhum_123.txt.gz
RH
11 10 10 10 10 11 19 31 55 82 80 45 29 9 11 11 10 9 9 7 6 6 32 87 87 82 93 99 99 97 100 98 93 97 99 95 90 85
16 16 15 14 13 12 12 16 24 54 90 17 17 24 25 24 19 17 14 10 9 9 8 28 89 88 80 93 100 99 100 88 92 97 98 100 95 92
20 21 21 20 19 17 16 16 21 48 95 54 23 24 32 36 28 26 21 17 14 12 10 13 34 83 90 86 96 100 100 100 100 94 98 98 98 99
23 26 28 28 28 27 26 28 32 43 67 95 61 41 37 41 39 28 27 24 20 18 16 14 16 22 59 92 94 95 99 100 100 99 99 94 99 95
24 25 26 26 28 28 29 31 34 37 48 74 88 53 50 41 40 36 30 25 25 22 20 21 19 16 15 24 82 93 94 100 100 100 99 99 98 98
30 30 32 36 38 39 43 44 47 58 70 91 97 97 92 57 51 68 53 60 36 37 33 29 19 15 15 15 12 68 94 96 100 100 100 100 100 99
33 37 41 46 49 48 51 47 56 96 99 100 100 100 98 93 86 82 94 71 86 85 50 32 26 22 14 13 15 12 35 80 96 98 100 100 100 100
36 42 45 45 43 42 45 46 56 99 100 100 100 99 96 97 97 100 95 100 100 86 92 41 41 32 25 20 31 50 41 53 73 97 100 100 100 100
39 41 42 45 46 48 48 49 57 67 93 96 99 90 94 97 99 98 99 98 94 58 80 90 43 50 36 27 26 96 100 81 37 71 95 97 100 100
42 45 48 49 54 65 69 90 84 80 81 83 83 78 86 98 100 100 95 78 67 53 79 99 59 96 48 34 29 28 92 100 98 79 60 97 97 98
46 51 61 70 74 98 100 100 100 89 82 82 87 96 99 100 98 88 86 85 78 63 48 98 95 96 62 39 37 39 50 41 57 77 92 83 96 94
50 56 75 84 100 100 100 96 94 99 93 96 100 93 83 86 78 67 69 90 99 96 80 95 100 100 98 71 49 37 33 27 22 25 51 77 91 97
74 72 80 84 99 100 100 99 97 100 99 98 77 64 60 58 65 69 69 73 76 76 57 99 100 99 100 100 69 48 40 32 27 20 18 26 85 100
99 100 100 93 92 98 100 91 88 94 82 64 60 60 75 68 66 68 71 71 74 74 66 83 100 99 98 95 80 52 43 36 34 28 23 19 61 100
100 100 100 100 99 95 80 64 66 66 68 70 73 72 71 69 66 66 67 67 65 69 75 84 92 96 100 96 83 62 59 40 39 57 59 44 54 99
100 93 94 99 97 79 67 65 67 71 76 78 80 78 79 81 96 100 100 81 82 70 71 73 84 97 95 88 83 69 75 87 43 39 46 38 40 96
100 98 95 89 68 64 66 68 72 75 78 82 87 88 90 94 100 98 90 86 100 100 83 70 80 93 89 77 84 75 79 81 84 85 87 75 39 55
100 100 89 72 72 76 78 78 79 84 88 92 90 91 93 96 98 94 93 100 100 100 86 79 92 87 75 67 69 70 85 89 97 100 100 100 76 40
95 78 74 76 79 79 81 87 92 93 94 93 94 94 95 94 97 96 93 94 100 91 84 86 94 99 100 100 85 79 99 97 86 81 90 99 100 82
75 76 78 82 82 82 85 92 95 94 95 95 94 95 97 98 97 96 96 96 99 99 92 85 84 90 100 98 99 79 70 74 71 79 81 95 95 98
75 79 85 86 82 84 89 96 99 98 96 99 98 98 96 96 96 97 97 97 100 97 99 91 82 88 98 98 96 83 68 74 89 90 88 99 99 96
80 83 84 83 82 87 92 97 99 96 93 94 96 96 95 100 99 98 98 97 95 98 100 100 85 89 95 96 95 86 74 80 85 94 100 100 100 98
82 87 86 81 82 91 95 97 98 96 95 96 97 96 97 98 98 97 98 97 97 97 94 97 94 92 90 87 89 92 90 87 92 92 100 91 100 88

GFSNE_850_rhum_126.txt.gz
RH
14 14 15 16 16 18 31 78 78 61 50 50 66 76 80 49 30 16 13 11 10 10 9 7 5 8 10 56 85 88 88 86 91 85 91 99 96 95
16 17 20 21 22 22 23 50 78 84 75 55 66 70 88 78 70 24 18 13 11 11 12 11 11 7 7 8 42 86 87 88 96 96 95 93 94 93
16 16 17 18 19 21 23 34 80 92 85 62 72 78 51 50 40 36 25 27 21 13 13 12 12 12 10 8 9 28 79 86 87 98 100 99 94 91
19 20 22 23 23 24 27 35 68 89 91 87 85 89 89 86 41 24 23 30 30 19 13 13 15 17 14 12 12 10 11 67 82 88 98 99 99 89
21 23 23 24 32 38 40 58 75 89 97 97 92 92 89 93 92 47 48 44 56 33 25 18 15 14 14 14 11 12 11 10 59 84 94 97 100 100
19 22 26 30 36 44 81 91 94 95 95 96 93 91 90 91 91 90 90 92 75 33 62 62 24 14 12 14 14 17 20 26 29 36 95 98 96 100
23 27 32 35 40 43 49 86 93 94 95 96 92 90 88 84 88 91 93 99 100 94 88 87 58 40 20 16 16 23 29 91 72 36 62 91 93 96
32 36 37 37 40 42 45 49 54 97 97 95 92 86 85 87 88 92 100 99 100 88 88 88 86 77 50 34 22 21 25 42 97 100 92 58 88 93
32 39 38 41 44 48 54 70 87 98 100 100 99 95 93 93 96 100 99 98 92 90 92 87 85 84 86 79 23 25 29 30 35 81 90 87 75 94
38 41 42 48 55 61 94 100 100 99 98 100 100 99 99 99 94 94 96 98 93 90 90 93 86 90 88 86 43 30 31 35 35 31 28 46 75 83
43 45 49 55 84 99 100 100 100 100 99 99 99 100 100 100 100 100 95 96 90 87 90 96 91 90 83 72 86 69 35 32 33 32 27 22 36 72
52 60 66 67 90 100 100 100 100 100 95 99 97 94 97 98 97 100 99 98 97 96 89 94 90 100 97 91 92 87 62 38 34 33 31 25 20 35
60 87 97 100 100 100 100 99 97 97 98 96 93 93 89 92 97 99 100 100 99 96 93 100 88 99 100 95 88 87 74 50 41 34 34 30 23 32
87 96 99 100 100 100 100 100 99 89 98 92 90 88 93 98 100 98 94 85 85 87 74 80 98 100 100 100 91 85 72 54 55 46 44 58 43 37
77 99 100 100 100 100 100 97 70 91 91 93 95 98 99 100 99 86 93 98 100 95 74 70 100 98 98 94 88 85 96 64 59 88 77 56 52 35
80 100 100 100 100 100 79 69 78 88 98 100 100 100 100 100 100 100 100 100 100 100 95 78 92 100 100 99 98 88 80 92 84 94 100 100 98 78
100 99 98 100 100 97 92 95 100 100 100 100 100 100 100 100 100 100 100 100 100 100 97 96 99 100 100 96 100 91 92 92 88 87 94 94 92 77
100 100 99 100 98 93 91 93 97 98 96 97 93 91 98 100 100 100 100 100 99 100 99 100 100 97 95 89 97 95 91 90 87 80 68 74 77 78
100 100 100 96 89 82 93 99 100 88 84 85 89 96 100 99 100 100 100 100 100 100 99 100 100 100 100 97 81 96 96 88 82 87 90 79 93 76
98 84 80 85 85 86 88 93 89 87 88 94 96 100 98 99 100 100 100 100 100 100 100 99 97 96 96 94 99 91 82 82 85 97 87 92 93 91
59 68 76 81 81 83 83 86 92 91 93 99 98 98 98 100 100 100 100 100 100 99 100 100 94 100 100 99 100 96 94 84 78 90 93 100 100 92
60 68 80 84 83 83 85 90 95 93 94 97 96 97 98 99 98 96 97 99 100 100 100 100 100 100 100 100 100 100 88 71 74 84 88 96 100 100
64 74 82 81 82 83 85 95 97 95 95 97 96 95 97 97 96 98 100 100 100 100 100 100 100 100 100 100 100 100 98 96 85 80 74 88 100 100

GFSNE_850_rhum_129.txt.gz
RH
14 15 18 20 20 23 24 39 75 68 53 47 56 68 70 67 66 33 16 12 12 11 10 10 8 9 7 8 7 6 5 6 63 88 84 74 69 84
16 15 17 19 20 24 23 25 50 79 77 53 52 67 75 76 85 75 42 16 14 13 11 10 10 9 9 8 8 8 8 6 6 40 82 84 84 78
17 18 16 19 24 30 36 47 68 82 87 42 51 64 57 63 61 80 63 40 30 19 13 10 9 9 10 12 11 10 10 8 7 6 32 83 88 96
17 18 19 26 23 32 49 60 73 87 87 53 54 72 74 70 68 65 59 59 72 77 88 29 23 20 16 12 11 10 12 11 10 11 8 28 82 85
21 21 21 24 26 47 50 65 79 90 85 91 80 83 85 82 76 69 62 70 55 80 32 37 96 54 20 16 15 13 13 14 12 11 13 13 32 83
22 23 22 26 32 37 47 60 86 92 91 92 92 81 86 82 84 84 83 70 84 46 33 81 63 47 34 30 21 24 28 17 16 20 19 16 23 29
28 32 30 29 32 38 38 37 54 69 78 85 91 93 83 85 84 85 85 93 70 61 67 84 59 32 30 29 34 62 39 22 22 37 20 16 22 43
28 31 33 35 36 34 37 44 50 67 94 96 94 93 93 89 90 93 95 85 94 81 82 71 52 47 46 50 61 83 43 36 42 28 26 24 20 22
23 25 29 42 54 48 52 68 89 99 100 99 97 93 96 96 94 94 90 91 90 87 84 85 78 71 55 54 67 68 54 78 70 32 28 26 26 22
21 28 36 43 55 78 73 92 92 99 100 94 93 92 96 99 98 96 94 92 90 88 90 89 88 72 87 76 38 35 89 95 80 42 32 28 26 25
24 34 47 53 63 98 100 98 97 98 95 96 95 96 97 100 98 94 97 98 96 89 88 84 83 91 73 53 43 66 95 83 92 87 76 35 30 29
30 38 57 69 89 100 100 100 98 95 94 89 88 86 90 91 92 93 91 95 95 99 92 96 95 87 100 88 70 64 61 77 94 88 64 40 40 44
31 47 64 94 99 100 100 100 96 98 94 95 88 88 90 82 82 90 91 95 99 96 88 100 96 94 100 98 90 82 71 81 76 61 51 44 64 100
35 62 83 95 100 100 100 99 99 99 98 88 93 87 84 87 88 91 94 92 90 85 73 100 100 100 100 97 97 85 80 79 79 77 60 68 67 84
47 53 87 100 100 100 100 100 99 98 78 84 87 93 90 91 92 85 85 87 91 93 91 97 100 100 100 98 97 93 99 80 80 79 83 77 74 86
47 64 84 100 100 100 100 95 87 87 91 97 100 95 98 100 100 98 98 96 98 94 93 86 87 95 97 98 100 93 97 100 80 84 80 77 76 84
89 100 100 96 95 95 97 93 90 94 96 100 100 100 100 100 100 100 100 100 100 99 94 91 95 96 97 97 95 95 87 88 85 82 81 80 63 58
96 98 94 96 99 98 96 89 91 96 100 100 100 100 100 100 100 100 100 97 96 95 97 96 95 95 91 85 99 99 96 92 94 90 85 94 83 65
91 92 97 99 96 91 86 92 100 100 100 92 98 100 100 100 100 100 100 100 98 96 96 98 96 95 100 100 85 84 97 83 81 75 80 86 99 72
66 89 88 78 74 84 95 100 98 93 88 96 100 100 100 100 100 99 100 100 100 98 96 92 97 97 99 98 100 96 83 77 82 93 98 89 87 81
64 74 68 63 70 86 96 92 92 86 91 100 100 98 94 100 100 100 100 100 100 98 97 93 88 100 98 99 98 87 82 85 89 100 100 100 100 92
62 67 64 66 77 87 87 89 85 87 94 100 98 96 95 98 98 96 96 98 98 99 98 95 93 96 100 100 97 96 93 79 76 88 96 100 98 99
64 68 68 70 77 80 84 83 84 93 96 98 97 94 94 96 97 96 98 98 98 98 97 96 96 100 100 99 100 98 94 93 87 83 73 81 90 98

GFSNE_850_rhum_132.txt.gz
RH
14 16 16 16 15 15 17 23 44 58 46 47 47 58 62 57 31 27 23 21 17 16 21 11 9 9 9 8 8 7 7 7 6 6 5 4 14 47
15 15 16 15 14 15 17 18 29 54 73 56 39 38 41 40 38 39 34 25 21 14 12 12 12 11 10 10 11 11 10 9 9 7 14 10 6 10
15 16 16 19 18 20 20 23 27 42 51 22 31 38 42 58 59 62 60 50 39 34 36 49 21 16 35 35 16 13 12 11 10 8 9 34 22 16
17 20 21 24 26 26 33 42 40 47 66 42 33 36 48 60 61 64 65 64 61 59 90 50 27 22 56 21 16 17 23 26 15 14 12 22 22 12
17 20 20 22 24 30 43 48 51 62 72 85 44 47 60 63 63 67 79 76 63 49 51 38 44 79 81 32 21 20 18 19 16 14 12 29 13 8
17 22 24 23 22 26 32 38 43 52 74 79 58 51 66 85 78 88 83 82 76 66 47 45 50 61 48 33 31 23 25 56 48 22 18 28 15 13
17 21 23 22 21 25 33 33 40 43 50 55 56 63 79 81 88 90 92 86 78 62 63 66 55 40 33 35 35 31 64 95 91 48 54 43 26 20
16 16 20 26 28 34 35 40 44 69 76 99 100 95 90 94 97 92 94 92 90 76 85 74 60 52 50 46 41 36 80 85 47 93 96 94 56 27
18 17 22 25 32 38 44 52 66 82 98 100 100 100 100 97 96 95 92 90 88 81 82 78 57 69 63 63 54 55 41 34 62 96 97 94 84 67
18 17 20 23 31 43 48 58 64 80 85 88 91 93 92 91 95 90 95 100 98 85 78 86 66 72 65 53 54 50 46 84 97 100 92 95 95 91
18 18 22 26 35 47 78 90 95 96 92 92 97 98 98 98 95 96 98 99 95 83 77 89 84 84 77 65 54 50 60 75 78 64 94 95 95 94
19 18 22 32 50 74 100 100 99 92 94 90 89 88 86 80 73 92 85 84 89 100 100 96 90 96 98 84 75 67 63 54 60 67 94 94 94 83
19 18 22 37 58 92 98 98 99 99 96 98 92 92 76 66 72 73 76 85 90 89 78 98 97 89 100 100 75 80 74 71 75 64 58 64 63 95
19 20 25 39 52 90 98 98 100 99 97 99 99 84 69 74 79 86 88 89 93 92 83 90 94 95 100 96 97 84 83 85 80 68 60 63 61 61
21 24 31 40 46 99 99 94 100 100 100 100 78 76 82 89 92 92 90 89 89 83 80 81 90 97 99 100 95 93 92 92 97 69 70 74 70 69
24 35 43 53 63 96 98 88 93 92 88 85 93 96 97 100 100 100 100 99 100 84 73 76 84 89 95 98 98 92 97 96 78 70 75 74 76 77
42 64 68 60 66 78 80 88 93 98 90 93 100 100 100 100 100 100 100 100 100 92 82 77 80 87 93 94 94 87 80 76 75 75 84 85 77 74
97 93 70 71 76 85 91 91 94 93 88 97 100 100 100 100 100 100 100 100 100 90 88 82 88 94 90 88 85 75 78 84 79 84 97 95 72 70
97 93 66 66 72 85 89 88 84 86 100 100 100 100 100 100 100 100 95 96 95 93 88 88 89 96 100 100 83 90 93 94 100 97 82 76 82 79
96 91 51 58 71 82 76 73 87 98 100 100 100 100 100 100 100 100 97 97 97 94 91 90 92 92 99 95 99 96 96 90 83 83 86 92 95 80
97 88 46 62 76 70 66 77 95 100 100 100 100 97 96 100 100 98 95 97 100 99 97 94 88 96 97 98 97 82 77 84 86 97 100 100 93 84
96 52 45 62 67 68 70 81 91 93 88 84 90 90 93 100 100 98 97 100 97 98 97 91 91 94 96 97 94 91 83 77 81 84 87 95 97 98
82 43 51 62 68 70 70 76 79 80 79 91 94 95 100 98 98 98 98 97 98 97 96 95 95 97 94 96 96 95 90 83 82 81 73 82 89 90

GFSNE_850_rhum_135.txt.gz
RH
14 15 15 14 13 14 16 21 28 36 34 44 52 48 45 34 22 24 28 31 27 26 21 38 28 12 10 9 12 12 10 8 8 12 10 10 35 24
14 15 15 14 14 13 15 20 26 37 46 32 30 32 30 32 35 44 46 42 39 35 30 40 72 31 22 74 76 47 15 13 17 47 8 7 16 19
14 15 15 14 14 13 15 18 23 35 41 24 29 34 41 41 42 44 52 55 55 48 44 37 34 28 42 97 93 33 18 18 14 21 11 9 10 33
14 15 16 16 16 16 18 19 23 36 47 37 33 38 48 46 50 54 57 66 73 69 58 49 37 25 42 62 30 22 23 18 15 18 14 12 15 66
13 15 16 18 19 21 23 25 29 37 46 55 36 35 42 44 46 56 60 70 66 62 59 53 46 50 50 35 28 23 20 18 19 61 91 46 22 27
13 15 16 18 20 21 21 24 28 34 39 43 42 39 44 44 60 69 66 64 63 57 51 46 49 53 53 44 36 32 27 25 25 42 70 34 48 86
16 15 17 19 22 23 22 25 35 40 41 44 47 52 54 70 86 86 80 79 66 57 55 51 50 42 39 40 38 35 32 30 80 95 52 30 71 95
32 15 17 18 22 27 32 32 39 48 51 76 72 80 80 95 93 90 90 88 84 71 82 57 55 47 45 43 42 40 36 42 51 36 32 95 96 98
38 18 17 19 21 26 30 38 52 59 88 93 98 90 91 86 90 90 90 90 90 84 87 77 56 53 53 51 46 43 41 40 38 59 97 95 100 96
41 21 19 20 23 29 32 33 38 49 67 77 87 78 90 90 95 95 96 97 97 86 84 78 58 61 59 53 47 43 42 44 54 69 77 87 79 85
89 30 21 20 20 27 39 41 43 52 70 88 90 96 100 100 100 99 93 90 96 88 71 88 77 82 69 57 50 49 49 50 50 49 46 52 78 94
100 28 23 22 22 30 49 70 82 68 90 91 86 89 93 92 91 87 80 95 94 86 85 95 98 100 98 79 74 69 57 48 46 46 49 63 51 74
92 27 24 23 27 40 57 90 94 95 98 99 97 97 94 91 81 72 80 86 91 94 82 99 100 95 100 99 73 72 68 55 56 55 52 54 55 56
52 25 24 26 30 36 61 64 94 99 97 98 95 96 96 91 72 79 84 92 94 88 79 82 92 88 92 94 89 75 72 62 63 55 54 53 55 58
46 27 29 29 32 46 59 76 96 93 97 96 95 96 80 84 89 89 87 84 81 77 78 79 86 86 90 97 88 80 76 66 72 70 67 67 62 59
46 33 32 35 46 56 76 66 83 90 91 93 92 86 89 93 98 100 99 83 88 66 64 70 77 86 91 89 89 85 79 97 72 72 70 66 64 63
84 53 38 44 67 91 95 78 76 84 90 96 97 93 95 99 100 100 100 99 98 85 74 72 75 84 86 88 92 85 75 74 71 72 79 77 68 68
84 42 38 65 93 96 84 68 76 90 93 100 99 96 100 100 100 98 99 100 100 89 89 86 88 89 86 79 78 75 77 77 73 81 90 94 74 86
97 78 62 97 96 96 75 70 89 85 94 90 94 100 100 100 100 100 96 98 96 94 89 92 89 93 100 100 81 88 91 84 86 89 85 93 94 71
98 93 75 87 96 95 62 78 88 89 83 96 100 99 96 100 100 100 100 100 99 96 89 86 93 94 100 98 100 92 84 90 92 94 85 83 82 74
93 81 90 96 96 78 64 85 85 77 86 100 100 100 92 100 100 97 96 97 100 97 97 92 86 95 100 98 97 91 83 86 95 96 92 98 93 92
94 95 96 96 96 55 71 77 76 78 88 93 86 80 92 98 99 98 97 97 93 94 96 90 84 91 94 96 94 94 87 79 79 89 94 97 97 99
96 92 96 96 66 59 70 74 75 73 78 80 76 92 98 98 97 96 96 94 96 96 95 95 94 99 98 100 97 98 92 85 81 83 76 84 94 94